Wetterdaten: Dienstag, 15.02.2022
Datum Zeit Temp. Aussen Temp. o. S. Temp +5cm Feuchte Auss Luftdruck Regen Sonnenschein Regendauer Solar Windben Empfang
15.02.2022 00:00 6,1 C 5,6 C 2,2 C 87 % 1006,8 hPa 0,0 l/m 0 min 0 min 0 W/m 12,9 km/h (3 Bft) 100,00 %
15.02.2022 00:02 6,1 C 5,6 C 2,2 C 87 % 1006,9 hPa 0,0 l/m 0 min 0 min 0 W/m 12,9 km/h (3 Bft) 20,00 %
15.02.2022 00:04 6,1 C 5,6 C 2,2 C 87 % 1006,9 hPa 0,0 l/m 0 min 0 min 0 W/m 9,7 km/h (2 Bft) 95,74 %
15.02.2022 00:08 6,2 C 5,6 C 2,2 C 87 % 1006,9 hPa 0,0 l/m 0 min 0 min 0 W/m 16,1 km/h (3 Bft) 97,87 %
15.02.2022 00:10 6,2 C 5,6 C 2,2 C 87 % 1006,9 hPa 0,0 l/m 0 min 0 min 0 W/m 9,7 km/h (2 Bft) 95,74 %
15.02.2022 00:12 6,2 C 5,6 C 2,2 C 87 % 1006,9 hPa 0,0 l/m 0 min 0 min 0 W/m 16,1 km/h (3 Bft) 97,87 %
15.02.2022 00:14 6,3 C 5,6 C 2,2 C 88 % 1006,9 hPa 0,0 l/m 0 min 0 min 0 W/m 19,3 km/h (3 Bft) 97,83 %
15.02.2022 00:16 6,3 C 6,1 C 2,2 C 88 % 1006,8 hPa 0,0 l/m 0 min 0 min 0 W/m 12,9 km/h (3 Bft) 97,87 %
15.02.2022 00:18 6,4 C 6,1 C 2,8 C 88 % 1007,0 hPa 0,0 l/m 0 min 0 min 0 W/m 12,9 km/h (3 Bft) 97,87 %
15.02.2022 00:20 6,4 C 6,1 C 2,8 C 88 % 1007,0 hPa 0,0 l/m 0 min 0 min 0 W/m 25,7 km/h (4 Bft) 97,87 %
15.02.2022 00:22 6,4 C 6,1 C 2,8 C 88 % 1007,0 hPa 0,0 l/m 0 min 0 min 0 W/m 12,9 km/h (3 Bft) 97,87 %
15.02.2022 00:24 6,5 C 6,1 C 2,8 C 88 % 1006,9 hPa 0,0 l/m 0 min 0 min 0 W/m 12,9 km/h (3 Bft) 97,87 %
15.02.2022 00:26 6,5 C 6,1 C 2,8 C 88 % 1007,0 hPa 0,0 l/m 0 min 0 min 0 W/m 16,1 km/h (3 Bft) 97,83 %
15.02.2022 00:28 6,6 C 6,1 C 2,8 C 88 % 1007,0 hPa 0,0 l/m 0 min 0 min 0 W/m 19,3 km/h (3 Bft) 97,87 %
15.02.2022 00:30 6,6 C 6,1 C 2,8 C 88 % 1007,0 hPa 0,0 l/m 0 min 0 min 0 W/m 12,9 km/h (3 Bft) 97,87 %
15.02.2022 00:32 6,6 C 6,1 C 2,8 C 88 % 1007,1 hPa 0,0 l/m 0 min 0 min 0 W/m 16,1 km/h (3 Bft) 97,92 %
15.02.2022 00:34 6,7 C 6,1 C 2,8 C 87 % 1007,1 hPa 0,0 l/m 0 min 0 min 0 W/m 16,1 km/h (3 Bft) 95,74 %
15.02.2022 00:36 6,7 C 6,1 C 2,8 C 88 % 1007,1 hPa 0,0 l/m 0 min 0 min 0 W/m 19,3 km/h (3 Bft) 95,74 %
15.02.2022 00:38 6,7 C 6,1 C 2,8 C 88 % 1007,1 hPa 0,0 l/m 0 min 0 min 0 W/m 16,1 km/h (3 Bft) 100,00 %
15.02.2022 00:40 6,8 C 6,1 C 2,8 C 88 % 1007,1 hPa 0,0 l/m 0 min 0 min 0 W/m 12,9 km/h (3 Bft) 100,00 %
15.02.2022 00:42 6,8 C 6,1 C 2,8 C 88 % 1007,1 hPa 0,0 l/m 0 min 0 min 0 W/m 29,0 km/h (5 Bft) 100,00 %
15.02.2022 00:44 6,8 C 6,1 C 2,8 C 87 % 1007,1 hPa 0,0 l/m 0 min 0 min 0 W/m 16,1 km/h (3 Bft) 97,87 %
15.02.2022 00:46 6,9 C 6,1 C 2,8 C 87 % 1007,1 hPa 0,0 l/m 0 min 0 min 0 W/m 12,9 km/h (3 Bft) 100,00 %
15.02.2022 00:48 6,9 C 6,1 C 2,8 C 87 % 1007,2 hPa 0,0 l/m 0 min 0 min 0 W/m 22,5 km/h (4 Bft) 100,00 %
15.02.2022 00:50 6,9 C 6,1 C 2,8 C 87 % 1007,1 hPa 0,0 l/m 0 min 0 min 0 W/m 12,9 km/h (3 Bft) 95,74 %
15.02.2022 00:52 7,0 C 6,1 C 2,8 C 87 % 1007,1 hPa 0,0 l/m 0 min 0 min 0 W/m 12,9 km/h (3 Bft) 95,74 %
15.02.2022 00:54 6,9 C 6,1 C 2,8 C 87 % 1007,1 hPa 0,0 l/m 0 min 0 min 0 W/m 12,9 km/h (3 Bft) 95,74 %
15.02.2022 00:56 6,9 C 6,1 C 2,8 C 87 % 1007,2 hPa 0,0 l/m 0 min 0 min 0 W/m 12,9 km/h (3 Bft) 95,74 %
15.02.2022 00:58 7,0 C 6,1 C 2,8 C 87 % 1007,1 hPa 0,0 l/m 0 min 0 min 0 W/m 16,1 km/h (3 Bft) 93,62 %
15.02.2022 01:00 7,0 C 6,1 C 2,8 C 87 % 1007,2 hPa 0,0 l/m 0 min 0 min 0 W/m 9,7 km/h (2 Bft) 95,65 %
15.02.2022 01:02 7,0 C 6,1 C 2,8 C 87 % 1007,2 hPa 0,0 l/m 0 min 0 min 0 W/m 9,7 km/h (2 Bft) 95,74 %
15.02.2022 01:04 6,9 C 6,1 C 2,8 C 87 % 1007,2 hPa 0,0 l/m 0 min 0 min 0 W/m 9,7 km/h (2 Bft) 95,74 %
15.02.2022 01:06 6,9 C 6,1 C 2,8 C 87 % 1007,3 hPa 0,0 l/m 0 min 0 min 0 W/m 12,9 km/h (3 Bft) 93,62 %
15.02.2022 01:08 6,9 C 6,1 C 2,8 C 87 % 1007,2 hPa 0,0 l/m 0 min 0 min 0 W/m 9,7 km/h (2 Bft) 95,74 %
15.02.2022 01:10 6,9 C 6,1 C 2,8 C 87 % 1007,3 hPa 0,0 l/m 0 min 0 min 0 W/m 16,1 km/h (3 Bft) 95,74 %
15.02.2022 01:12 6,9 C 6,1 C 2,8 C 87 % 1007,2 hPa 0,0 l/m 0 min 0 min 0 W/m 6,4 km/h (2 Bft) 95,65 %
15.02.2022 01:14 6,8 C 6,1 C 2,8 C 87 % 1007,3 hPa 0,0 l/m 0 min 0 min 0 W/m 12,9 km/h (3 Bft) 95,74 %
15.02.2022 01:16 6,8 C 6,1 C 2,8 C 87 % 1007,3 hPa 0,0 l/m 0 min 0 min 0 W/m 9,7 km/h (2 Bft) 65,96 %
15.02.2022 01:18 6,8 C 6,1 C 2,8 C 87 % 1007,3 hPa 0,0 l/m 0 min 0 min 0 W/m 6,4 km/h (2 Bft) 84,44 %
15.02.2022 01:20 6,8 C 5,6 C 2,8 C 88 % 1007,2 hPa 0,0 l/m 0 min 0 min 0 W/m 6,4 km/h (2 Bft) 93,62 %
15.02.2022 01:22 6,7 C 5,6 C 2,2 C 88 % 1007,2 hPa 0,0 l/m 0 min 0 min 0 W/m 19,3 km/h (3 Bft) 95,74 %
15.02.2022 01:24 6,7 C 5,6 C 2,2 C 88 % 1007,3 hPa 0,0 l/m 0 min 0 min 0 W/m 12,9 km/h (3 Bft) 93,48 %
15.02.2022 01:26 6,7 C 5,6 C 2,2 C 88 % 1007,3 hPa 0,0 l/m 0 min 0 min 0 W/m 6,4 km/h (2 Bft) 95,74 %
15.02.2022 01:28 6,7 C 5,6 C 2,2 C 88 % 1007,3 hPa 0,0 l/m 0 min 0 min 0 W/m 9,7 km/h (2 Bft) 97,87 %
15.02.2022 01:30 6,6 C 5,6 C 2,2 C 88 % 1007,4 hPa 0,0 l/m 0 min 0 min 0 W/m 6,4 km/h (2 Bft) 95,83 %
15.02.2022 01:32 6,6 C 5,6 C 2,2 C 88 % 1007,3 hPa 0,0 l/m 0 min 0 min 0 W/m 6,4 km/h (2 Bft) 95,74 %
15.02.2022 01:34 6,6 C 5,6 C 2,2 C 88 % 1007,3 hPa 0,0 l/m 0 min 0 min 0 W/m 9,7 km/h (2 Bft) 95,74 %
15.02.2022 01:36 6,5 C 5,6 C 2,2 C 88 % 1007,3 hPa 0,0 l/m 0 min 0 min 0 W/m 6,4 km/h (2 Bft) 97,87 %
15.02.2022 01:38 6,5 C 5,6 C 2,2 C 88 % 1007,4 hPa 0,0 l/m 0 min 0 min 0 W/m 6,4 km/h (2 Bft) 97,87 %
15.02.2022 01:40 6,5 C 5,6 C 2,2 C 88 % 1007,5 hPa 0,0 l/m 0 min 0 min 0 W/m 9,7 km/h (2 Bft) 97,83 %
15.02.2022 01:42 6,4 C 5,6 C 2,2 C 88 % 1007,5 hPa 0,0 l/m 0 min 0 min 0 W/m 6,4 km/h (2 Bft) 97,87 %
15.02.2022 01:44 6,4 C 5,6 C 2,2 C 88 % 1007,5 hPa 0,0 l/m 0 min 0 min 0 W/m 6,4 km/h (2 Bft) 100,00 %
15.02.2022 01:46 6,4 C 5,6 C 2,2 C 88 % 1007,5 hPa 0,0 l/m 0 min 0 min 0 W/m 12,9 km/h (3 Bft) 100,00 %
15.02.2022 01:48 6,4 C 5,6 C 2,2 C 88 % 1007,5 hPa 0,0 l/m 0 min 0 min 0 W/m 3,2 km/h (1 Bft) 95,74 %
15.02.2022 01:50 6,4 C 5,6 C 2,2 C 89 % 1007,6 hPa 0,0 l/m 0 min 0 min 0 W/m 6,4 km/h (2 Bft) 100,00 %
15.02.2022 01:52 6,4 C 5,6 C 2,2 C 89 % 1007,6 hPa 0,0 l/m 0 min 0 min 0 W/m 6,4 km/h (2 Bft) 97,87 %
15.02.2022 01:54 6,4 C 5,6 C 2,2 C 89 % 1007,6 hPa 0,0 l/m 0 min 0 min 0 W/m 9,7 km/h (2 Bft) 100,00 %
15.02.2022 01:56 6,4 C 5,6 C 2,2 C 89 % 1007,5 hPa 0,0 l/m 0 min 0 min 0 W/m 9,7 km/h (2 Bft) 97,87 %
15.02.2022 01:58 6,4 C 5,6 C 2,2 C 89 % 1007,6 hPa 0,0 l/m 0 min 0 min 0 W/m 6,4 km/h (2 Bft) 97,87 %
15.02.2022 02:00 6,4 C 5,6 C 2,2 C 89 % 1007,6 hPa 0,0 l/m 0 min 0 min 0 W/m 9,7 km/h (2 Bft) 97,87 %
15.02.2022 02:02 6,4 C 5,6 C 2,2 C 89 % 1007,6 hPa 0,0 l/m 0 min 0 min 0 W/m 6,4 km/h (2 Bft) 97,83 %
15.02.2022 02:04 6,4 C 5,6 C 2,2 C 89 % 1007,7 hPa 0,0 l/m 0 min 0 min 0 W/m 6,4 km/h (2 Bft) 97,87 %
15.02.2022 02:06 6,4 C 5,6 C 2,2 C 89 % 1007,7 hPa 0,0 l/m 0 min 0 min 0 W/m 6,4 km/h (2 Bft) 91,49 %
15.02.2022 02:08 6,4 C 5,6 C 2,2 C 89 % 1007,7 hPa 0,0 l/m 0 min 0 min 0 W/m 6,4 km/h (2 Bft) 97,87 %
15.02.2022 02:10 6,4 C 5,6 C 2,8 C 89 % 1007,7 hPa 0,0 l/m 0 min 0 min 0 W/m 6,4 km/h (2 Bft) 97,87 %
15.02.2022 02:12 6,4 C 5,6 C 2,8 C 89 % 1007,7 hPa 0,0 l/m 0 min 0 min 0 W/m 12,9 km/h (3 Bft) 95,74 %
15.02.2022 02:14 6,4 C 5,6 C 2,8 C 89 % 1007,7 hPa 0,0 l/m 0 min 0 min 0 W/m 6,4 km/h (2 Bft) 97,83 %
15.02.2022 02:16 6,4 C 5,6 C 2,8 C 89 % 1007,7 hPa 0,0 l/m 0 min 0 min 0 W/m 6,4 km/h (2 Bft) 95,74 %
15.02.2022 02:18 6,4 C 6,1 C 2,8 C 89 % 1007,8 hPa 0,0 l/m 0 min 0 min 0 W/m 12,9 km/h (3 Bft) 97,87 %
15.02.2022 02:20 6,5 C 6,1 C 2,8 C 89 % 1007,7 hPa 0,0 l/m 0 min 0 min 0 W/m 6,4 km/h (2 Bft) 97,87 %
15.02.2022 02:22 6,5 C 6,1 C 2,8 C 89 % 1007,8 hPa 0,0 l/m 0 min 0 min 0 W/m 12,9 km/h (3 Bft) 97,87 %
15.02.2022 02:24 6,5 C 6,1 C 2,8 C 89 % 1007,7 hPa 0,0 l/m 0 min 0 min 0 W/m 6,4 km/h (2 Bft) 97,87 %
15.02.2022 02:26 6,5 C 6,1 C 2,8 C 89 % 1007,8 hPa 0,0 l/m 0 min 0 min 0 W/m 12,9 km/h (3 Bft) 97,87 %
15.02.2022 02:28 6,5 C 6,1 C 2,8 C 89 % 1007,8 hPa 0,0 l/m 0 min 0 min 0 W/m 6,4 km/h (2 Bft) 97,83 %
15.02.2022 02:30 6,5 C 6,1 C 2,8 C 89 % 1007,8 hPa 0,0 l/m 0 min 0 min 0 W/m 6,4 km/h (2 Bft) 97,87 %
15.02.2022 02:32 6,5 C 6,1 C 2,8 C 89 % 1007,8 hPa 0,0 l/m 0 min 0 min 0 W/m 9,7 km/h (2 Bft) 100,00 %
15.02.2022 02:34 6,6 C 6,1 C 2,8 C 89 % 1007,8 hPa 0,0 l/m 0 min 0 min 0 W/m 9,7 km/h (2 Bft) 100,00 %
15.02.2022 02:36 6,6 C 6,1 C 2,8 C 89 % 1007,8 hPa 0,0 l/m 0 min 0 min 0 W/m 9,7 km/h (2 Bft) 100,00 %
15.02.2022 02:38 6,6 C 6,1 C 2,8 C 89 % 1007,8 hPa 0,0 l/m 0 min 0 min 0 W/m 9,7 km/h (2 Bft) 100,00 %
15.02.2022 02:40 6,6 C 6,1 C 2,8 C 89 % 1007,9 hPa 0,0 l/m 0 min 0 min 0 W/m 9,7 km/h (2 Bft) 100,00 %
15.02.2022 02:42 6,6 C 6,1 C 2,8 C 89 % 1007,9 hPa 0,0 l/m 0 min 0 min 0 W/m 6,4 km/h (2 Bft) 100,00 %
15.02.2022 02:44 6,6 C 6,1 C 2,8 C 89 % 1007,8 hPa 0,0 l/m 0 min 0 min 0 W/m 9,7 km/h (2 Bft) 100,00 %
15.02.2022 02:46 6,5 C 6,1 C 2,8 C 89 % 1007,9 hPa 0,0 l/m 0 min 0 min 0 W/m 6,4 km/h (2 Bft) 100,00 %
15.02.2022 02:48 6,6 C 6,1 C 2,8 C 89 % 1007,9 hPa 0,0 l/m 0 min 0 min 0 W/m 6,4 km/h (2 Bft) 100,00 %
15.02.2022 02:50 6,5 C 5,6 C 2,8 C 89 % 1007,9 hPa 0,0 l/m 0 min 0 min 0 W/m 3,2 km/h (1 Bft) 100,00 %
15.02.2022 02:52 6,5 C 5,6 C 2,8 C 89 % 1007,9 hPa 0,0 l/m 0 min 0 min 0 W/m 6,4 km/h (2 Bft) 97,87 %
15.02.2022 02:54 6,5 C 6,1 C 2,8 C 89 % 1007,9 hPa 0,0 l/m 0 min 0 min 0 W/m 12,9 km/h (3 Bft) 100,00 %
15.02.2022 02:56 6,5 C 6,1 C 2,8 C 89 % 1007,9 hPa 0,0 l/m 0 min 0 min 0 W/m 9,7 km/h (2 Bft) 97,87 %
15.02.2022 02:58 6,5 C 5,6 C 2,8 C 89 % 1007,8 hPa 0,0 l/m 0 min 0 min 0 W/m 9,7 km/h (2 Bft) 100,00 %
15.02.2022 03:00 6,5 C 5,6 C 2,8 C 89 % 1007,9 hPa 0,0 l/m 0 min 0 min 0 W/m 9,7 km/h (2 Bft) 97,87 %
15.02.2022 03:02 6,5 C 5,6 C 2,8 C 89 % 1007,9 hPa 0,0 l/m 0 min 0 min 0 W/m 6,4 km/h (2 Bft) 95,65 %
15.02.2022 03:04 6,5 C 5,6 C 2,2 C 89 % 1007,9 hPa 0,0 l/m 0 min 0 min 0 W/m 6,4 km/h (2 Bft) 97,87 %
15.02.2022 03:06 6,5 C 5,6 C 2,2 C 89 % 1007,9 hPa 0,0 l/m 0 min 0 min 0 W/m 12,9 km/h (3 Bft) 100,00 %
15.02.2022 03:08 6,5 C 5,6 C 2,2 C 89 % 1007,9 hPa 0,0 l/m 0 min 0 min 0 W/m 12,9 km/h (3 Bft) 100,00 %
15.02.2022 03:10 6,4 C 5,6 C 2,2 C 89 % 1007,9 hPa 0,0 l/m 0 min 0 min 0 W/m 6,4 km/h (2 Bft) 97,87 %
15.02.2022 03:12 6,4 C 5,6 C 2,2 C 89 % 1008,0 hPa 0,0 l/m 0 min 0 min 0 W/m 9,7 km/h (2 Bft) 97,83 %
15.02.2022 03:14 6,4 C 5,6 C 2,2 C 89 % 1008,0 hPa 0,0 l/m 0 min 0 min 0 W/m 6,4 km/h (2 Bft) 100,00 %
15.02.2022 03:16 6,4 C 5,6 C 2,2 C 89 % 1008,0 hPa 0,0 l/m 0 min 0 min 0 W/m 6,4 km/h (2 Bft) 97,87 %
15.02.2022 03:18 6,4 C 5,6 C 2,2 C 89 % 1008,1 hPa 0,0 l/m 0 min 0 min 0 W/m 12,9 km/h (3 Bft) 100,00 %
15.02.2022 03:20 6,4 C 5,6 C 2,2 C 89 % 1008,1 hPa 0,0 l/m 0 min 0 min 0 W/m 6,4 km/h (2 Bft) 97,87 %
15.02.2022 03:22 6,4 C 5,6 C 2,2 C 89 % 1008,1 hPa 0,0 l/m 0 min 0 min 0 W/m 3,2 km/h (1 Bft) 97,87 %
15.02.2022 03:24 6,4 C 5,6 C 2,2 C 89 % 1008,1 hPa 0,0 l/m 0 min 0 min 0 W/m 12,9 km/h (3 Bft) 97,83 %
15.02.2022 03:26 6,3 C 5,6 C 2,2 C 89 % 1008,2 hPa 0,0 l/m 0 min 0 min 0 W/m 9,7 km/h (2 Bft) 97,87 %
15.02.2022 03:28 6,3 C 5,6 C 2,2 C 90 % 1008,2 hPa 0,0 l/m 0 min 0 min 0 W/m 12,9 km/h (3 Bft) 95,74 %
15.02.2022 03:30 6,4 C 5,6 C 2,2 C 90 % 1008,1 hPa 0,0 l/m 0 min 0 min 0 W/m 6,4 km/h (2 Bft) 95,74 %
15.02.2022 03:32 6,4 C 5,6 C 2,2 C 90 % 1008,1 hPa 0,0 l/m 0 min 0 min 0 W/m 12,9 km/h (3 Bft) 95,74 %
15.02.2022 03:34 6,4 C 5,6 C 2,8 C 89 % 1008,2 hPa 0,0 l/m 0 min 0 min 0 W/m 6,4 km/h (2 Bft) 95,74 %
15.02.2022 03:36 6,4 C 5,6 C 2,2 C 90 % 1008,2 hPa 0,0 l/m 0 min 0 min 0 W/m 6,4 km/h (2 Bft) 97,83 %
15.02.2022 03:38 6,4 C 5,6 C 2,2 C 90 % 1008,2 hPa 0,0 l/m 0 min 0 min 0 W/m 6,4 km/h (2 Bft) 95,74 %
15.02.2022 03:40 6,4 C 5,6 C 2,8 C 90 % 1008,2 hPa 0,0 l/m 0 min 0 min 0 W/m 3,2 km/h (1 Bft) 97,87 %
15.02.2022 03:42 6,4 C 5,6 C 2,8 C 90 % 1008,3 hPa 0,0 l/m 0 min 0 min 0 W/m 9,7 km/h (2 Bft) 97,87 %
15.02.2022 03:44 6,4 C 5,6 C 2,8 C 90 % 1008,4 hPa 0,0 l/m 0 min 0 min 0 W/m 12,9 km/h (3 Bft) 56,52 %
15.02.2022 03:46 6,4 C 5,6 C 2,8 C 90 % 1008,4 hPa 0,0 l/m 0 min 0 min 0 W/m 9,7 km/h (2 Bft) 97,87 %
15.02.2022 03:48 6,4 C 5,6 C 2,8 C 90 % 1008,4 hPa 0,0 l/m 0 min 0 min 0 W/m 9,7 km/h (2 Bft) 97,83 %
15.02.2022 03:50 6,4 C 5,6 C 2,8 C 90 % 1008,5 hPa 0,0 l/m 0 min 0 min 0 W/m 12,9 km/h (3 Bft) 95,74 %
15.02.2022 03:52 6,4 C 5,6 C 2,8 C 90 % 1008,5 hPa 0,0 l/m 0 min 0 min 0 W/m 9,7 km/h (2 Bft) 97,87 %
15.02.2022 03:54 6,4 C 5,6 C 2,8 C 90 % 1008,5 hPa 0,0 l/m 0 min 0 min 0 W/m 9,7 km/h (2 Bft) 91,49 %
15.02.2022 03:56 6,4 C 5,6 C 2,8 C 90 % 1008,5 hPa 0,0 l/m 0 min 0 min 0 W/m 6,4 km/h (2 Bft) 93,62 %
15.02.2022 03:58 6,4 C 5,6 C 2,8 C 90 % 1008,5 hPa 0,0 l/m 0 min 0 min 0 W/m 6,4 km/h (2 Bft) 91,49 %
15.02.2022 04:00 6,4 C 5,6 C 2,8 C 90 % 1008,5 hPa 0,0 l/m 0 min 0 min 0 W/m 6,4 km/h (2 Bft) 93,48 %
15.02.2022 04:02 6,4 C 5,6 C 2,8 C 90 % 1008,5 hPa 0,0 l/m 0 min 0 min 0 W/m 6,4 km/h (2 Bft) 100,00 %
15.02.2022 04:04 6,4 C 5,6 C 2,8 C 90 % 1008,5 hPa 0,0 l/m 0 min 0 min 0 W/m 9,7 km/h (2 Bft) 95,74 %
15.02.2022 04:06 6,4 C 5,6 C 2,8 C 90 % 1008,5 hPa 0,0 l/m 0 min 0 min 0 W/m 12,9 km/h (3 Bft) 95,74 %
15.02.2022 04:08 6,4 C 5,6 C 2,8 C 90 % 1008,6 hPa 0,0 l/m 0 min 0 min 0 W/m 6,4 km/h (2 Bft) 97,87 %
15.02.2022 04:10 6,4 C 5,6 C 2,8 C 90 % 1008,6 hPa 0,0 l/m 0 min 0 min 0 W/m 12,9 km/h (3 Bft) 95,74 %
15.02.2022 04:12 6,4 C 5,6 C 2,8 C 90 % 1008,6 hPa 0,0 l/m 0 min 0 min 0 W/m 12,9 km/h (3 Bft) 95,65 %
15.02.2022 04:14 6,4 C 5,6 C 2,8 C 90 % 1008,7 hPa 0,0 l/m 0 min 0 min 0 W/m 6,4 km/h (2 Bft) 95,74 %
15.02.2022 04:16 6,4 C 5,6 C 2,8 C 90 % 1008,7 hPa 0,0 l/m 0 min 0 min 0 W/m 3,2 km/h (1 Bft) 93,62 %
15.02.2022 04:18 6,4 C 5,6 C 2,8 C 90 % 1008,7 hPa 0,0 l/m 0 min 0 min 0 W/m 16,1 km/h (3 Bft) 95,74 %
15.02.2022 04:20 6,3 C 5,6 C 2,8 C 90 % 1008,7 hPa 0,0 l/m 0 min 0 min 0 W/m 6,4 km/h (2 Bft) 95,74 %
15.02.2022 04:22 6,3 C 5,6 C 2,8 C 90 % 1008,7 hPa 0,0 l/m 0 min 0 min 0 W/m 12,9 km/h (3 Bft) 95,74 %
15.02.2022 04:24 6,3 C 5,6 C 2,8 C 90 % 1008,8 hPa 0,0 l/m 0 min 0 min 0 W/m 12,9 km/h (3 Bft) 93,48 %
15.02.2022 04:26 6,3 C 5,6 C 2,8 C 90 % 1008,7 hPa 0,0 l/m 0 min 0 min 0 W/m 6,4 km/h (2 Bft) 95,74 %
15.02.2022 04:28 6,3 C 5,6 C 2,8 C 90 % 1008,7 hPa 0,0 l/m 0 min 0 min 0 W/m 6,4 km/h (2 Bft) 95,74 %
15.02.2022 04:30 6,3 C 5,6 C 2,8 C 90 % 1008,7 hPa 0,0 l/m 0 min 0 min 0 W/m 6,4 km/h (2 Bft) 97,87 %
15.02.2022 04:32 6,3 C 5,6 C 2,8 C 90 % 1008,7 hPa 0,0 l/m 0 min 0 min 0 W/m 12,9 km/h (3 Bft) 97,87 %
15.02.2022 04:34 6,3 C 5,6 C 2,8 C 90 % 1008,8 hPa 0,0 l/m 0 min 0 min 0 W/m 6,4 km/h (2 Bft) 95,74 %
15.02.2022 04:36 6,3 C 5,6 C 2,2 C 90 % 1008,8 hPa 0,0 l/m 0 min 0 min 0 W/m 6,4 km/h (2 Bft) 95,65 %
15.02.2022 04:38 6,3 C 5,6 C 2,2 C 91 % 1008,7 hPa 0,0 l/m 0 min 0 min 0 W/m 6,4 km/h (2 Bft) 95,74 %
15.02.2022 04:40 6,3 C 5,6 C 2,2 C 91 % 1008,7 hPa 0,0 l/m 0 min 0 min 0 W/m 3,2 km/h (1 Bft) 100,00 %
15.02.2022 04:42 6,3 C 5,6 C 2,2 C 91 % 1008,8 hPa 0,0 l/m 0 min 0 min 0 W/m 6,4 km/h (2 Bft) 100,00 %
15.02.2022 04:44 6,3 C 5,6 C 2,2 C 91 % 1008,8 hPa 0,0 l/m 0 min 0 min 0 W/m 6,4 km/h (2 Bft) 97,87 %
15.02.2022 04:46 6,3 C 5,6 C 2,2 C 91 % 1008,8 hPa 0,0 l/m 0 min 0 min 0 W/m 12,9 km/h (3 Bft) 100,00 %
15.02.2022 04:48 6,3 C 5,6 C 2,2 C 91 % 1008,8 hPa 0,0 l/m 0 min 0 min 0 W/m 3,2 km/h (1 Bft) 97,83 %
15.02.2022 04:50 6,3 C 5,6 C 2,2 C 91 % 1008,9 hPa 0,0 l/m 0 min 0 min 0 W/m 6,4 km/h (2 Bft) 97,87 %
15.02.2022 04:52 6,2 C 5,6 C 2,2 C 91 % 1008,9 hPa 0,0 l/m 0 min 0 min 0 W/m 6,4 km/h (2 Bft) 100,00 %
15.02.2022 04:54 6,2 C 5,6 C 2,2 C 91 % 1008,9 hPa 0,0 l/m 0 min 0 min 0 W/m 9,7 km/h (2 Bft) 100,00 %
15.02.2022 04:56 6,2 C 5,6 C 2,2 C 91 % 1008,9 hPa 0,0 l/m 0 min 0 min 0 W/m 6,4 km/h (2 Bft) 95,74 %
15.02.2022 04:58 6,2 C 5,6 C 2,2 C 91 % 1009,0 hPa 0,0 l/m 0 min 0 min 0 W/m 6,4 km/h (2 Bft) 100,00 %
15.02.2022 05:00 6,2 C 5,6 C 2,2 C 91 % 1008,9 hPa 0,0 l/m 0 min 0 min 0 W/m 6,4 km/h (2 Bft) 100,00 %
15.02.2022 05:02 6,2 C 5,6 C 2,2 C 91 % 1009,0 hPa 0,0 l/m 0 min 0 min 0 W/m 3,2 km/h (1 Bft) 100,00 %
15.02.2022 05:04 6,1 C 5,6 C 2,2 C 91 % 1009,0 hPa 0,0 l/m 0 min 0 min 0 W/m 9,7 km/h (2 Bft) 97,87 %
15.02.2022 05:06 6,1 C 5,6 C 2,2 C 91 % 1009,0 hPa 0,0 l/m 0 min 0 min 0 W/m 6,4 km/h (2 Bft) 97,87 %
15.02.2022 05:08 6,1 C 5,6 C 2,2 C 91 % 1009,1 hPa 0,0 l/m 0 min 0 min 0 W/m 6,4 km/h (2 Bft) 100,00 %
15.02.2022 05:10 6,1 C 5,6 C 2,2 C 92 % 1009,1 hPa 0,0 l/m 0 min 0 min 0 W/m 12,9 km/h (3 Bft) 100,00 %
15.02.2022 05:12 6,1 C 5,6 C 2,2 C 92 % 1009,1 hPa 0,0 l/m 0 min 0 min 0 W/m 6,4 km/h (2 Bft) 100,00 %
15.02.2022 05:14 6,1 C 5,0 C 2,2 C 92 % 1009,2 hPa 0,0 l/m 0 min 0 min 0 W/m 6,4 km/h (2 Bft) 100,00 %
15.02.2022 05:16 6,1 C 5,0 C 2,2 C 92 % 1009,2 hPa 0,0 l/m 0 min 0 min 0 W/m 6,4 km/h (2 Bft) 100,00 %
15.02.2022 05:18 6,1 C 5,0 C 2,2 C 92 % 1009,3 hPa 0,0 l/m 0 min 0 min 0 W/m 6,4 km/h (2 Bft) 100,00 %
15.02.2022 05:20 6,0 C 5,0 C 2,2 C 92 % 1009,3 hPa 0,0 l/m 0 min 0 min 0 W/m 6,4 km/h (2 Bft) 100,00 %
15.02.2022 05:22 6,0 C 5,0 C 2,2 C 92 % 1009,3 hPa 0,0 l/m 0 min 0 min 0 W/m 6,4 km/h (2 Bft) 100,00 %
15.02.2022 05:24 6,0 C 5,0 C 2,2 C 92 % 1009,3 hPa 0,0 l/m 0 min 0 min 0 W/m 6,4 km/h (2 Bft) 97,83 %
15.02.2022 05:26 6,0 C 5,0 C 2,2 C 92 % 1009,4 hPa 0,0 l/m 0 min 0 min 0 W/m 12,9 km/h (3 Bft) 100,00 %
15.02.2022 05:28 6,0 C 5,0 C 2,2 C 92 % 1009,4 hPa 0,0 l/m 0 min 0 min 0 W/m 3,2 km/h (1 Bft) 100,00 %
15.02.2022 05:30 6,0 C 5,0 C 2,2 C 92 % 1009,4 hPa 0,0 l/m 0 min 0 min 0 W/m 3,2 km/h (1 Bft) 100,00 %
15.02.2022 05:32 6,0 C 5,0 C 2,2 C 92 % 1009,5 hPa 0,0 l/m 0 min 0 min 0 W/m 6,4 km/h (2 Bft) 100,00 %
15.02.2022 05:34 5,9 C 5,0 C 2,2 C 92 % 1009,4 hPa 0,0 l/m 0 min 0 min 0 W/m 6,4 km/h (2 Bft) 100,00 %
15.02.2022 05:36 5,9 C 5,0 C 2,2 C 92 % 1009,5 hPa 0,0 l/m 0 min 0 min 0 W/m 3,2 km/h (1 Bft) 100,00 %
15.02.2022 05:38 5,9 C 5,0 C 2,2 C 92 % 1009,5 hPa 0,0 l/m 0 min 0 min 0 W/m 6,4 km/h (2 Bft) 97,87 %
15.02.2022 05:40 5,9 C 5,0 C 2,2 C 92 % 1009,6 hPa 0,0 l/m 0 min 0 min 0 W/m 6,4 km/h (2 Bft) 100,00 %
15.02.2022 05:42 5,9 C 5,0 C 2,2 C 92 % 1009,6 hPa 0,0 l/m 0 min 0 min 0 W/m 6,4 km/h (2 Bft) 100,00 %
15.02.2022 05:44 5,9 C 5,0 C 2,2 C 92 % 1009,7 hPa 0,0 l/m 0 min 0 min 0 W/m 3,2 km/h (1 Bft) 97,87 %
15.02.2022 05:46 5,9 C 5,0 C 2,2 C 92 % 1009,7 hPa 0,0 l/m 0 min 0 min 0 W/m 3,2 km/h (1 Bft) 100,00 %
15.02.2022 05:48 5,9 C 5,0 C 2,2 C 92 % 1009,7 hPa 0,0 l/m 0 min 0 min 0 W/m 3,2 km/h (1 Bft) 95,74 %
15.02.2022 05:50 5,9 C 5,0 C 2,2 C 92 % 1009,8 hPa 0,0 l/m 0 min 0 min 0 W/m 6,4 km/h (2 Bft) 95,74 %
15.02.2022 05:52 5,9 C 5,0 C 2,2 C 92 % 1009,8 hPa 0,0 l/m 0 min 0 min 0 W/m 6,4 km/h (2 Bft) 93,62 %
15.02.2022 05:54 5,9 C 5,0 C 2,2 C 92 % 1009,8 hPa 0,0 l/m 0 min 0 min 0 W/m 6,4 km/h (2 Bft) 93,62 %
15.02.2022 05:56 5,9 C 5,0 C 2,2 C 92 % 1009,8 hPa 0,0 l/m 0 min 0 min 0 W/m 6,4 km/h (2 Bft) 95,74 %
15.02.2022 05:58 5,9 C 5,0 C 2,2 C 92 % 1009,8 hPa 0,0 l/m 0 min 0 min 0 W/m 12,9 km/h (3 Bft) 93,48 %
15.02.2022 06:00 5,9 C 5,0 C 2,2 C 93 % 1009,9 hPa 0,0 l/m 0 min 0 min 0 W/m 9,7 km/h (2 Bft) 95,74 %
15.02.2022 06:02 5,9 C 5,0 C 2,2 C 93 % 1009,9 hPa 0,0 l/m 0 min 0 min 0 W/m 9,7 km/h (2 Bft) 95,74 %
15.02.2022 06:04 5,8 C 5,0 C 2,2 C 93 % 1009,9 hPa 0,0 l/m 0 min 0 min 0 W/m 6,4 km/h (2 Bft) 93,62 %
15.02.2022 06:08 5,8 C 5,0 C 2,2 C 93 % 1009,9 hPa 0,0 l/m 0 min 0 min 0 W/m 6,4 km/h (2 Bft) 94,62 %
15.02.2022 06:10 5,8 C 5,0 C 2,2 C 93 % 1009,9 hPa 0,0 l/m 0 min 0 min 0 W/m 6,4 km/h (2 Bft) 95,65 %
15.02.2022 06:12 5,8 C 5,0 C 2,2 C 93 % 1010,0 hPa 0,0 l/m 0 min 0 min 0 W/m 6,4 km/h (2 Bft) 93,62 %
15.02.2022 06:14 5,8 C 5,0 C 2,2 C 93 % 1010,0 hPa 0,0 l/m 0 min 0 min 0 W/m 6,4 km/h (2 Bft) 95,74 %
15.02.2022 06:16 5,8 C 5,0 C 2,2 C 93 % 1010,0 hPa 0,0 l/m 0 min 0 min 0 W/m 6,4 km/h (2 Bft) 95,74 %
15.02.2022 06:18 5,8 C 5,0 C 2,2 C 93 % 1010,0 hPa 0,0 l/m 0 min 0 min 0 W/m 6,4 km/h (2 Bft) 95,74 %
15.02.2022 06:20 5,8 C 5,0 C 2,2 C 93 % 1010,1 hPa 0,0 l/m 0 min 0 min 0 W/m 6,4 km/h (2 Bft) 95,74 %
15.02.2022 06:22 5,7 C 5,0 C 2,2 C 93 % 1010,1 hPa 0,0 l/m 0 min 0 min 0 W/m 9,7 km/h (2 Bft) 97,83 %
15.02.2022 06:24 5,7 C 5,0 C 2,2 C 93 % 1010,0 hPa 0,0 l/m 0 min 0 min 0 W/m 6,4 km/h (2 Bft) 97,87 %
15.02.2022 06:26 5,7 C 5,0 C 2,2 C 93 % 1009,9 hPa 0,0 l/m 0 min 0 min 0 W/m 6,4 km/h (2 Bft) 97,87 %
15.02.2022 06:28 5,7 C 5,0 C 1,7 C 93 % 1009,9 hPa 0,0 l/m 0 min 0 min 0 W/m 9,7 km/h (2 Bft) 100,00 %
15.02.2022 06:30 5,7 C 5,0 C 1,7 C 93 % 1010,0 hPa 0,0 l/m 0 min 0 min 0 W/m 6,4 km/h (2 Bft) 100,00 %
15.02.2022 06:32 5,7 C 5,0 C 1,7 C 93 % 1010,1 hPa 0,0 l/m 0 min 0 min 0 W/m 12,9 km/h (3 Bft) 100,00 %
15.02.2022 06:34 5,7 C 5,0 C 1,7 C 93 % 1010,0 hPa 0,0 l/m 0 min 0 min 0 W/m 6,4 km/h (2 Bft) 100,00 %
15.02.2022 06:36 5,6 C 5,0 C 2,2 C 93 % 1010,0 hPa 0,0 l/m 0 min 0 min 0 W/m 3,2 km/h (1 Bft) 100,00 %
15.02.2022 06:38 5,6 C 5,0 C 1,7 C 93 % 1010,0 hPa 0,0 l/m 0 min 0 min 0 W/m 6,4 km/h (2 Bft) 100,00 %
15.02.2022 06:40 5,6 C 5,0 C 1,7 C 93 % 1010,0 hPa 0,0 l/m 0 min 0 min 0 W/m 12,9 km/h (3 Bft) 100,00 %
15.02.2022 06:42 5,6 C 5,0 C 1,7 C 93 % 1010,0 hPa 0,0 l/m 0 min 2 min 0 W/m 6,4 km/h (2 Bft) 100,00 %
15.02.2022 06:44 5,7 C 5,0 C 1,7 C 93 % 1010,0 hPa 0,0 l/m 0 min 0 min 0 W/m 6,4 km/h (2 Bft) 100,00 %
15.02.2022 06:46 5,7 C 5,0 C 1,7 C 93 % 1010,1 hPa 0,0 l/m 0 min 0 min 0 W/m 6,4 km/h (2 Bft) 100,00 %
15.02.2022 06:48 5,6 C 5,0 C 1,7 C 93 % 1010,0 hPa 0,0 l/m 0 min 0 min 0 W/m 6,4 km/h (2 Bft) 97,87 %
15.02.2022 06:50 5,6 C 5,0 C 1,7 C 93 % 1010,1 hPa 0,0 l/m 0 min 0 min 0 W/m 3,2 km/h (1 Bft) 100,00 %
15.02.2022 06:52 5,6 C 5,0 C 1,7 C 93 % 1010,1 hPa 0,0 l/m 0 min 0 min 0 W/m 6,4 km/h (2 Bft) 100,00 %
15.02.2022 06:54 5,6 C 5,0 C 1,7 C 93 % 1010,0 hPa 0,0 l/m 0 min 0 min 0 W/m 12,9 km/h (3 Bft) 100,00 %
15.02.2022 06:56 5,6 C 5,0 C 1,7 C 93 % 1010,1 hPa 0,0 l/m 0 min 0 min 0 W/m 12,9 km/h (3 Bft) 97,87 %
15.02.2022 06:58 5,6 C 5,0 C 1,7 C 93 % 1010,1 hPa 0,0 l/m 0 min 0 min 0 W/m 12,9 km/h (3 Bft) 97,83 %
15.02.2022 07:00 5,6 C 5,0 C 1,7 C 93 % 1010,1 hPa 0,0 l/m 0 min 0 min 0 W/m 9,7 km/h (2 Bft) 97,87 %
15.02.2022 07:02 5,6 C 5,0 C 1,7 C 93 % 1010,1 hPa 0,0 l/m 0 min 0 min 0 W/m 9,7 km/h (2 Bft) 95,74 %
15.02.2022 07:04 5,6 C 5,0 C 1,7 C 93 % 1010,2 hPa 0,0 l/m 0 min 0 min 0 W/m 6,4 km/h (2 Bft) 97,87 %
15.02.2022 07:06 5,6 C 5,0 C 1,7 C 93 % 1010,2 hPa 0,0 l/m 0 min 0 min 0 W/m 9,7 km/h (2 Bft) 95,74 %
15.02.2022 07:08 5,6 C 5,0 C 1,7 C 93 % 1010,2 hPa 0,0 l/m 0 min 0 min 0 W/m 9,7 km/h (2 Bft) 97,87 %
15.02.2022 07:10 5,6 C 5,0 C 1,7 C 93 % 1010,3 hPa 0,0 l/m 0 min 0 min 0 W/m 6,4 km/h (2 Bft) 95,65 %
15.02.2022 07:12 5,6 C 5,0 C 1,7 C 93 % 1010,2 hPa 0,0 l/m 0 min 0 min 0 W/m 6,4 km/h (2 Bft) 97,87 %
15.02.2022 07:14 5,6 C 5,0 C 1,7 C 93 % 1010,3 hPa 0,0 l/m 0 min 0 min 0 W/m 12,9 km/h (3 Bft) 93,62 %
15.02.2022 07:16 5,6 C 5,0 C 1,7 C 93 % 1010,3 hPa 0,0 l/m 0 min 0 min 0 W/m 6,4 km/h (2 Bft) 95,74 %
15.02.2022 07:18 5,6 C 5,0 C 1,7 C 93 % 1010,3 hPa 0,0 l/m 0 min 0 min 0 W/m 3,2 km/h (1 Bft) 45,95 %
15.02.2022 07:20 5,6 C 5,0 C 1,7 C 93 % 1010,4 hPa 0,0 l/m 0 min 0 min 0 W/m 12,9 km/h (3 Bft) 97,87 %
15.02.2022 07:22 5,6 C 5,0 C 1,7 C 93 % 1010,5 hPa 0,0 l/m 0 min 0 min 0 W/m 12,9 km/h (3 Bft) 97,83 %
15.02.2022 07:24 5,6 C 5,0 C 1,7 C 94 % 1010,4 hPa 0,0 l/m 0 min 0 min 0 W/m 12,9 km/h (3 Bft) 97,87 %
15.02.2022 07:26 5,6 C 5,0 C 1,7 C 94 % 1010,5 hPa 0,0 l/m 0 min 0 min 0 W/m 9,7 km/h (2 Bft) 97,87 %
15.02.2022 07:28 5,6 C 5,0 C 1,7 C 94 % 1010,5 hPa 0,0 l/m 0 min 0 min 0 W/m 12,9 km/h (3 Bft) 95,74 %
15.02.2022 07:30 5,6 C 5,0 C 1,7 C 94 % 1010,5 hPa 0,0 l/m 0 min 0 min 0 W/m 12,9 km/h (3 Bft) 97,87 %
15.02.2022 07:32 5,6 C 5,0 C 1,7 C 94 % 1010,5 hPa 0,0 l/m 0 min 0 min 0 W/m 9,7 km/h (2 Bft) 97,83 %
15.02.2022 07:34 5,6 C 5,0 C 1,7 C 94 % 1010,5 hPa 0,0 l/m 0 min 0 min 0 W/m 9,7 km/h (2 Bft) 95,74 %
15.02.2022 07:36 5,6 C 5,0 C 1,7 C 94 % 1010,5 hPa 0,0 l/m 0 min 0 min 0 W/m 9,7 km/h (2 Bft) 95,74 %
15.02.2022 07:38 5,6 C 5,0 C 1,7 C 94 % 1010,5 hPa 0,0 l/m 0 min 0 min 0 W/m 12,9 km/h (3 Bft) 97,87 %
15.02.2022 07:40 5,6 C 5,0 C 1,7 C 94 % 1010,6 hPa 0,0 l/m 0 min 0 min 0 W/m 6,4 km/h (2 Bft) 95,74 %
15.02.2022 07:42 5,6 C 5,0 C 2,2 C 94 % 1010,6 hPa 0,0 l/m 0 min 0 min 0 W/m 6,4 km/h (2 Bft) 95,74 %
15.02.2022 07:44 5,6 C 5,0 C 1,7 C 94 % 1010,6 hPa 0,0 l/m 0 min 0 min 0 W/m 16,1 km/h (3 Bft) 93,48 %
15.02.2022 07:46 5,6 C 5,0 C 1,7 C 94 % 1010,7 hPa 0,0 l/m 0 min 0 min 0 W/m 3,2 km/h (1 Bft) 93,62 %
15.02.2022 07:48 5,6 C 5,0 C 1,7 C 94 % 1010,7 hPa 0,0 l/m 0 min 0 min 0 W/m 12,9 km/h (3 Bft) 97,87 %
15.02.2022 07:50 5,7 C 5,0 C 2,2 C 94 % 1010,7 hPa 0,0 l/m 0 min 0 min 0 W/m 12,9 km/h (3 Bft) 97,87 %
15.02.2022 07:52 5,7 C 5,0 C 2,2 C 94 % 1010,7 hPa 0,0 l/m 0 min 0 min 2 W/m 12,9 km/h (3 Bft) 97,87 %
15.02.2022 07:54 5,7 C 5,0 C 2,2 C 94 % 1010,7 hPa 0,0 l/m 0 min 0 min 5 W/m 19,3 km/h (3 Bft) 97,87 %
15.02.2022 07:56 5,7 C 5,0 C 2,2 C 94 % 1010,7 hPa 0,0 l/m 0 min 0 min 6 W/m 12,9 km/h (3 Bft) 95,65 %
15.02.2022 07:58 5,7 C 5,0 C 2,2 C 94 % 1010,7 hPa 0,0 l/m 0 min 0 min 7 W/m 9,7 km/h (2 Bft) 95,74 %
15.02.2022 08:00 5,7 C 5,0 C 2,2 C 94 % 1010,8 hPa 0,0 l/m 0 min 0 min 9 W/m 9,7 km/h (2 Bft) 97,87 %
15.02.2022 08:02 5,7 C 5,0 C 2,2 C 94 % 1010,8 hPa 0,0 l/m 0 min 0 min 10 W/m 6,4 km/h (2 Bft) 95,74 %
15.02.2022 08:04 5,7 C 5,0 C 2,2 C 94 % 1010,8 hPa 0,0 l/m 0 min 0 min 11 W/m 9,7 km/h (2 Bft) 93,62 %
15.02.2022 08:06 5,7 C 5,0 C 2,2 C 94 % 1010,8 hPa 0,0 l/m 0 min 0 min 12 W/m 12,9 km/h (3 Bft) 97,87 %
15.02.2022 08:08 5,7 C 5,0 C 2,2 C 94 % 1010,9 hPa 0,0 l/m 0 min 0 min 12 W/m 9,7 km/h (2 Bft) 97,83 %
15.02.2022 08:10 5,7 C 5,0 C 2,2 C 94 % 1010,9 hPa 0,0 l/m 0 min 0 min 13 W/m 6,4 km/h (2 Bft) 97,87 %
15.02.2022 08:12 5,7 C 5,0 C 2,2 C 94 % 1010,9 hPa 0,0 l/m 0 min 0 min 14 W/m 6,4 km/h (2 Bft) 97,87 %
15.02.2022 08:14 5,7 C 5,0 C 2,2 C 94 % 1010,9 hPa 0,0 l/m 0 min 0 min 16 W/m 9,7 km/h (2 Bft) 95,74 %
15.02.2022 08:16 5,7 C 5,0 C 2,2 C 94 % 1011,0 hPa 0,0 l/m 0 min 0 min 18 W/m 12,9 km/h (3 Bft) 97,87 %
15.02.2022 08:18 5,7 C 5,0 C 2,2 C 94 % 1011,0 hPa 0,0 l/m 0 min 0 min 19 W/m 12,9 km/h (3 Bft) 97,87 %
15.02.2022 08:20 5,7 C 5,6 C 2,2 C 94 % 1011,0 hPa 0,0 l/m 0 min 0 min 19 W/m 6,4 km/h (2 Bft) 97,83 %
15.02.2022 08:22 5,8 C 5,6 C 2,2 C 94 % 1011,1 hPa 0,0 l/m 0 min 0 min 18 W/m 6,4 km/h (2 Bft) 97,87 %
15.02.2022 08:24 5,8 C 5,6 C 2,2 C 94 % 1011,1 hPa 0,0 l/m 0 min 0 min 18 W/m 9,7 km/h (2 Bft) 97,87 %
15.02.2022 08:26 5,8 C 5,6 C 2,2 C 94 % 1011,2 hPa 0,0 l/m 0 min 0 min 19 W/m 16,1 km/h (3 Bft) 97,87 %
15.02.2022 08:28 5,8 C 5,6 C 2,2 C 94 % 1011,2 hPa 0,0 l/m 0 min 0 min 17 W/m 16,1 km/h (3 Bft) 95,74 %
15.02.2022 08:30 5,8 C 5,6 C 2,2 C 94 % 1011,2 hPa 0,0 l/m 0 min 0 min 16 W/m 3,2 km/h (1 Bft) 95,74 %
15.02.2022 08:32 5,8 C 5,6 C 2,2 C 94 % 1011,2 hPa 0,0 l/m 0 min 0 min 17 W/m 12,9 km/h (3 Bft) 97,83 %
15.02.2022 08:34 5,9 C 5,6 C 2,2 C 94 % 1011,2 hPa 0,0 l/m 0 min 0 min 20 W/m 12,9 km/h (3 Bft) 93,62 %
15.02.2022 08:36 5,9 C 5,6 C 2,2 C 94 % 1011,2 hPa 0,0 l/m 0 min 0 min 25 W/m 12,9 km/h (3 Bft) 97,87 %
15.02.2022 08:38 5,9 C 5,6 C 2,8 C 94 % 1011,2 hPa 0,0 l/m 0 min 0 min 27 W/m 12,9 km/h (3 Bft) 97,87 %
15.02.2022 08:40 5,9 C 5,6 C 2,8 C 94 % 1011,2 hPa 0,0 l/m 0 min 0 min 25 W/m 9,7 km/h (2 Bft) 97,87 %
15.02.2022 08:42 5,9 C 5,6 C 2,8 C 94 % 1011,2 hPa 0,0 l/m 0 min 0 min 26 W/m 12,9 km/h (3 Bft) 95,74 %
15.02.2022 08:44 5,9 C 5,6 C 2,8 C 94 % 1011,2 hPa 0,0 l/m 0 min 0 min 27 W/m 16,1 km/h (3 Bft) 97,83 %
15.02.2022 08:46 5,9 C 5,6 C 2,8 C 94 % 1011,2 hPa 0,0 l/m 0 min 0 min 35 W/m 12,9 km/h (3 Bft) 97,87 %
15.02.2022 08:48 6,0 C 5,6 C 2,8 C 94 % 1011,3 hPa 0,0 l/m 0 min 0 min 36 W/m 9,7 km/h (2 Bft) 97,87 %
15.02.2022 08:50 6,0 C 5,6 C 2,8 C 94 % 1011,4 hPa 0,0 l/m 0 min 0 min 32 W/m 12,9 km/h (3 Bft) 97,87 %
15.02.2022 08:52 6,0 C 5,6 C 2,8 C 94 % 1011,5 hPa 0,0 l/m 0 min 0 min 29 W/m 16,1 km/h (3 Bft) 97,87 %
15.02.2022 08:54 6,1 C 5,6 C 2,8 C 94 % 1011,5 hPa 0,0 l/m 0 min 0 min 30 W/m 9,7 km/h (2 Bft) 97,87 %
15.02.2022 08:56 6,1 C 5,6 C 2,8 C 94 % 1011,6 hPa 0,0 l/m 0 min 0 min 34 W/m 12,9 km/h (3 Bft) 97,83 %
15.02.2022 08:58 6,1 C 5,6 C 2,8 C 94 % 1011,5 hPa 0,0 l/m 0 min 0 min 34 W/m 22,5 km/h (4 Bft) 97,87 %
15.02.2022 09:00 6,1 C 5,6 C 2,8 C 94 % 1011,5 hPa 0,0 l/m 0 min 0 min 31 W/m 6,4 km/h (2 Bft) 100,00 %
15.02.2022 09:02 6,1 C 5,6 C 2,8 C 94 % 1011,6 hPa 0,0 l/m 0 min 0 min 32 W/m 19,3 km/h (3 Bft) 100,00 %
15.02.2022 09:04 6,1 C 5,6 C 2,8 C 94 % 1011,6 hPa 0,0 l/m 0 min 0 min 33 W/m 12,9 km/h (3 Bft) 100,00 %
15.02.2022 09:06 6,1 C 5,6 C 2,8 C 94 % 1011,6 hPa 0,0 l/m 0 min 0 min 34 W/m 9,7 km/h (2 Bft) 100,00 %
15.02.2022 09:08 6,1 C 5,6 C 2,8 C 94 % 1011,6 hPa 0,0 l/m 0 min 0 min 28 W/m 6,4 km/h (2 Bft) 100,00 %
15.02.2022 09:10 6,1 C 5,6 C 2,8 C 94 % 1011,6 hPa 0,0 l/m 0 min 0 min 25 W/m 9,7 km/h (2 Bft) 97,87 %
15.02.2022 09:12 6,2 C 5,6 C 2,8 C 94 % 1011,6 hPa 0,0 l/m 0 min 0 min 27 W/m 9,7 km/h (2 Bft) 100,00 %
15.02.2022 09:14 6,2 C 5,6 C 2,8 C 94 % 1011,7 hPa 0,0 l/m 0 min 0 min 30 W/m 16,1 km/h (3 Bft) 100,00 %
15.02.2022 09:16 6,2 C 5,6 C 2,8 C 94 % 1011,7 hPa 0,0 l/m 0 min 0 min 36 W/m 19,3 km/h (3 Bft) 100,00 %
15.02.2022 09:18 6,2 C 5,6 C 2,8 C 94 % 1011,7 hPa 0,0 l/m 0 min 0 min 42 W/m 22,5 km/h (4 Bft) 100,00 %
15.02.2022 09:20 6,2 C 6,1 C 2,8 C 94 % 1011,8 hPa 0,0 l/m 0 min 0 min 47 W/m 16,1 km/h (3 Bft) 100,00 %
15.02.2022 09:22 6,2 C 6,1 C 2,8 C 94 % 1011,8 hPa 0,0 l/m 0 min 0 min 39 W/m 9,7 km/h (2 Bft) 97,87 %
15.02.2022 09:24 6,2 C 6,1 C 2,8 C 94 % 1011,8 hPa 0,0 l/m 0 min 0 min 36 W/m 12,9 km/h (3 Bft) 100,00 %
15.02.2022 09:26 6,2 C 6,1 C 2,8 C 94 % 1011,8 hPa 0,0 l/m 0 min 0 min 53 W/m 12,9 km/h (3 Bft) 100,00 %
15.02.2022 09:28 6,2 C 6,1 C 2,8 C 94 % 1011,8 hPa 0,0 l/m 0 min 0 min 88 W/m 16,1 km/h (3 Bft) 100,00 %
15.02.2022 09:30 6,3 C 6,1 C 3,3 C 94 % 1011,9 hPa 0,0 l/m 2 min 0 min 116 W/m 12,9 km/h (3 Bft) 97,83 %
15.02.2022 09:32 6,3 C 6,1 C 3,3 C 94 % 1011,9 hPa 0,0 l/m 0 min 0 min 112 W/m 12,9 km/h (3 Bft) 100,00 %
15.02.2022 09:34 6,3 C 6,1 C 3,3 C 94 % 1011,9 hPa 0,0 l/m 0 min 0 min 99 W/m 12,9 km/h (3 Bft) 100,00 %
15.02.2022 09:37 6,4 C 6,1 C 3,3 C 93 % 1011,8 hPa 0,0 l/m 0 min 0 min 85 W/m 9,7 km/h (2 Bft) 97,14 %
15.02.2022 09:38 6,4 C 6,1 C 3,3 C 93 % 1011,8 hPa 0,0 l/m 0 min 0 min 83 W/m 12,9 km/h (3 Bft) 100,00 %
15.02.2022 09:40 6,4 C 6,1 C 3,3 C 93 % 1011,9 hPa 0,0 l/m 0 min 0 min 65 W/m 16,1 km/h (3 Bft) 93,62 %
15.02.2022 09:42 6,4 C 6,1 C 3,3 C 93 % 1011,9 hPa 0,0 l/m 0 min 0 min 59 W/m 22,5 km/h (4 Bft) 97,83 %
15.02.2022 09:44 6,4 C 6,1 C 3,3 C 93 % 1011,9 hPa 0,0 l/m 0 min 0 min 66 W/m 12,9 km/h (3 Bft) 97,87 %
15.02.2022 09:46 6,4 C 6,1 C 3,3 C 93 % 1011,9 hPa 0,0 l/m 0 min 0 min 83 W/m 16,1 km/h (3 Bft) 97,87 %
15.02.2022 09:48 6,5 C 6,1 C 3,3 C 92 % 1012,0 hPa 0,0 l/m 0 min 0 min 99 W/m 12,9 km/h (3 Bft) 95,74 %
15.02.2022 09:50 6,5 C 6,7 C 3,3 C 92 % 1011,9 hPa 0,0 l/m 0 min 0 min 93 W/m 12,9 km/h (3 Bft) 95,74 %
15.02.2022 09:52 6,5 C 6,7 C 3,3 C 92 % 1012,0 hPa 0,0 l/m 0 min 0 min 94 W/m 9,7 km/h (2 Bft) 93,62 %
15.02.2022 09:54 6,6 C 6,7 C 3,3 C 92 % 1012,0 hPa 0,0 l/m 0 min 0 min 81 W/m 6,4 km/h (2 Bft) 95,65 %
15.02.2022 09:56 6,6 C 6,7 C 3,3 C 92 % 1012,0 hPa 0,0 l/m 0 min 0 min 76 W/m 6,4 km/h (2 Bft) 95,74 %
15.02.2022 09:58 6,6 C 6,7 C 3,3 C 92 % 1012,1 hPa 0,0 l/m 0 min 0 min 81 W/m 19,3 km/h (3 Bft) 95,74 %
15.02.2022 10:00 6,6 C 6,7 C 3,3 C 92 % 1012,0 hPa 0,0 l/m 0 min 0 min 84 W/m 16,1 km/h (3 Bft) 93,62 %
15.02.2022 10:02 6,6 C 6,1 C 3,3 C 92 % 1012,1 hPa 0,0 l/m 0 min 0 min 72 W/m 16,1 km/h (3 Bft) 95,74 %
15.02.2022 10:04 6,6 C 6,1 C 3,3 C 91 % 1012,1 hPa 0,0 l/m 0 min 0 min 64 W/m 16,1 km/h (3 Bft) 93,62 %
15.02.2022 10:06 6,6 C 6,1 C 3,3 C 91 % 1012,1 hPa 0,0 l/m 0 min 0 min 59 W/m 12,9 km/h (3 Bft) 93,48 %
15.02.2022 10:08 6,6 C 6,1 C 3,3 C 91 % 1012,1 hPa 0,0 l/m 0 min 0 min 54 W/m 29,0 km/h (5 Bft) 95,74 %
15.02.2022 10:10 6,6 C 6,1 C 3,3 C 91 % 1012,1 hPa 0,0 l/m 0 min 0 min 54 W/m 19,3 km/h (3 Bft) 95,74 %
15.02.2022 10:12 6,6 C 6,1 C 3,3 C 91 % 1012,2 hPa 0,0 l/m 0 min 0 min 57 W/m 3,2 km/h (1 Bft) 97,87 %
15.02.2022 10:14 6,6 C 6,1 C 3,3 C 91 % 1012,2 hPa 0,0 l/m 0 min 0 min 52 W/m 6,4 km/h (2 Bft) 95,74 %
15.02.2022 10:16 6,6 C 6,1 C 3,3 C 91 % 1012,2 hPa 0,0 l/m 0 min 0 min 48 W/m 12,9 km/h (3 Bft) 97,87 %
15.02.2022 10:18 6,6 C 6,1 C 3,3 C 91 % 1012,2 hPa 0,0 l/m 0 min 0 min 55 W/m 16,1 km/h (3 Bft) 97,83 %
15.02.2022 10:20 6,6 C 6,1 C 3,3 C 91 % 1012,2 hPa 0,0 l/m 0 min 0 min 58 W/m 16,1 km/h (3 Bft) 95,74 %
15.02.2022 10:22 6,6 C 6,1 C 3,3 C 91 % 1012,2 hPa 0,0 l/m 0 min 0 min 66 W/m 19,3 km/h (3 Bft) 97,87 %
15.02.2022 10:24 6,6 C 6,1 C 3,3 C 91 % 1012,2 hPa 0,0 l/m 0 min 0 min 75 W/m 22,5 km/h (4 Bft) 97,87 %
15.02.2022 10:26 6,5 C 6,1 C 3,3 C 91 % 1012,3 hPa 0,0 l/m 0 min 0 min 67 W/m 9,7 km/h (2 Bft) 95,74 %
15.02.2022 10:28 6,6 C 6,1 C 3,3 C 91 % 1012,3 hPa 0,0 l/m 0 min 0 min 71 W/m 16,1 km/h (3 Bft) 97,87 %
15.02.2022 10:30 6,6 C 6,1 C 3,3 C 91 % 1012,3 hPa 0,0 l/m 0 min 0 min 77 W/m 6,4 km/h (2 Bft) 97,83 %
15.02.2022 10:32 6,6 C 6,1 C 3,3 C 91 % 1012,4 hPa 0,0 l/m 0 min 0 min 83 W/m 19,3 km/h (3 Bft) 97,87 %
15.02.2022 10:34 6,6 C 6,7 C 3,3 C 91 % 1012,4 hPa 0,0 l/m 0 min 0 min 85 W/m 9,7 km/h (2 Bft) 97,87 %
15.02.2022 10:36 6,6 C 6,7 C 3,3 C 91 % 1012,4 hPa 0,0 l/m 0 min 0 min 88 W/m 12,9 km/h (3 Bft) 97,87 %
15.02.2022 10:38 6,6 C 6,7 C 3,3 C 91 % 1012,4 hPa 0,0 l/m 0 min 0 min 101 W/m 12,9 km/h (3 Bft) 97,87 %
15.02.2022 10:40 6,6 C 6,7 C 3,3 C 91 % 1012,4 hPa 0,0 l/m 0 min 0 min 114 W/m 9,7 km/h (2 Bft) 100,00 %
15.02.2022 10:42 6,7 C 6,7 C 3,3 C 91 % 1012,4 hPa 0,0 l/m 0 min 0 min 117 W/m 6,4 km/h (2 Bft) 97,83 %
15.02.2022 10:44 6,7 C 6,7 C 3,3 C 91 % 1012,4 hPa 0,0 l/m 0 min 0 min 107 W/m 9,7 km/h (2 Bft) 100,00 %
15.02.2022 10:46 6,7 C 6,7 C 3,3 C 91 % 1012,4 hPa 0,0 l/m 0 min 0 min 114 W/m 9,7 km/h (2 Bft) 97,87 %
15.02.2022 10:48 6,7 C 6,7 C 3,3 C 91 % 1012,5 hPa 0,0 l/m 0 min 0 min 121 W/m 12,9 km/h (3 Bft) 100,00 %
15.02.2022 10:50 6,8 C 6,7 C 3,3 C 91 % 1012,5 hPa 0,0 l/m 0 min 0 min 124 W/m 12,9 km/h (3 Bft) 97,87 %
15.02.2022 10:52 6,8 C 6,7 C 3,9 C 91 % 1012,5 hPa 0,0 l/m 0 min 0 min 107 W/m 6,4 km/h (2 Bft) 100,00 %
15.02.2022 10:54 6,8 C 6,7 C 3,3 C 91 % 1012,5 hPa 0,0 l/m 0 min 0 min 88 W/m 19,3 km/h (3 Bft) 97,83 %
15.02.2022 10:56 6,8 C 6,7 C 3,9 C 90 % 1012,6 hPa 0,0 l/m 0 min 0 min 95 W/m 6,4 km/h (2 Bft) 100,00 %
15.02.2022 10:58 6,8 C 6,7 C 3,9 C 90 % 1012,6 hPa 0,0 l/m 0 min 0 min 74 W/m 12,9 km/h (3 Bft) 100,00 %
15.02.2022 11:00 6,8 C 6,7 C 3,3 C 90 % 1012,6 hPa 0,0 l/m 0 min 0 min 63 W/m 12,9 km/h (3 Bft) 97,87 %
15.02.2022 11:02 6,8 C 6,7 C 3,3 C 90 % 1012,6 hPa 0,0 l/m 0 min 0 min 84 W/m 19,3 km/h (3 Bft) 78,72 %
15.02.2022 11:04 6,8 C 6,7 C 3,9 C 90 % 1012,6 hPa 0,0 l/m 0 min 0 min 128 W/m 9,7 km/h (2 Bft) 73,33 %
15.02.2022 11:06 6,8 C 6,7 C 3,9 C 90 % 1012,6 hPa 0,0 l/m 0 min 0 min 154 W/m 22,5 km/h (4 Bft) 97,83 %
15.02.2022 11:08 6,8 C 7,2 C 3,9 C 90 % 1012,6 hPa 0,0 l/m 0 min 0 min 163 W/m 22,5 km/h (4 Bft) 97,87 %
15.02.2022 11:10 6,8 C 7,2 C 3,9 C 89 % 1012,6 hPa 0,0 l/m 0 min 0 min 171 W/m 19,3 km/h (3 Bft) 95,74 %
15.02.2022 11:12 6,9 C 7,2 C 3,9 C 89 % 1012,6 hPa 0,0 l/m 0 min 0 min 184 W/m 22,5 km/h (4 Bft) 97,87 %
15.02.2022 11:14 6,9 C 7,2 C 3,9 C 89 % 1012,6 hPa 0,0 l/m 0 min 0 min 148 W/m 22,5 km/h (4 Bft) 97,87 %
15.02.2022 11:16 6,9 C 7,2 C 3,9 C 89 % 1012,7 hPa 0,0 l/m 0 min 0 min 140 W/m 19,3 km/h (3 Bft) 97,83 %
15.02.2022 11:18 7,0 C 7,2 C 3,9 C 88 % 1012,6 hPa 0,0 l/m 0 min 0 min 140 W/m 12,9 km/h (3 Bft) 97,87 %
15.02.2022 11:20 7,0 C 7,2 C 3,9 C 88 % 1012,7 hPa 0,0 l/m 0 min 0 min 129 W/m 16,1 km/h (3 Bft) 95,74 %
15.02.2022 11:22 7,1 C 7,2 C 4,4 C 88 % 1012,7 hPa 0,0 l/m 0 min 0 min 150 W/m 9,7 km/h (2 Bft) 95,74 %
15.02.2022 11:24 7,1 C 7,8 C 4,4 C 88 % 1012,7 hPa 0,0 l/m 0 min 0 min 187 W/m 12,9 km/h (3 Bft) 97,87 %
15.02.2022 11:26 7,1 C 7,8 C 4,4 C 88 % 1012,7 hPa 0,0 l/m 0 min 0 min 125 W/m 22,5 km/h (4 Bft) 97,87 %
15.02.2022 11:28 7,1 C 7,2 C 4,4 C 88 % 1012,8 hPa 0,0 l/m 0 min 0 min 104 W/m 25,7 km/h (4 Bft) 97,83 %
15.02.2022 11:30 7,2 C 11,1 C 5,6 C 88 % 1012,8 hPa 0,0 l/m 0 min 0 min 158 W/m 12,9 km/h (3 Bft) 97,87 %
15.02.2022 11:32 7,3 C 10,6 C 6,1 C 88 % 1012,8 hPa 0,0 l/m 2 min 0 min 452 W/m 12,9 km/h (3 Bft) 93,62 %
15.02.2022 11:34 7,4 C 10,0 C 6,1 C 87 % 1012,8 hPa 0,0 l/m 2 min 0 min 287 W/m 19,3 km/h (3 Bft) 97,87 %
15.02.2022 11:36 7,4 C 8,9 C 5,6 C 86 % 1012,9 hPa 0,0 l/m 0 min 0 min 205 W/m 22,5 km/h (4 Bft) 97,87 %
15.02.2022 11:38 7,4 C 8,3 C 5,0 C 86 % 1012,9 hPa 0,0 l/m 0 min 0 min 200 W/m 16,1 km/h (3 Bft) 97,87 %
15.02.2022 11:40 7,4 C 7,8 C 5,0 C 85 % 1012,9 hPa 0,0 l/m 0 min 0 min 141 W/m 19,3 km/h (3 Bft) 95,65 %
15.02.2022 11:42 7,4 C 7,2 C 4,4 C 85 % 1012,8 hPa 0,0 l/m 0 min 0 min 88 W/m 16,1 km/h (3 Bft) 95,74 %
15.02.2022 11:44 7,3 C 7,2 C 4,4 C 84 % 1012,9 hPa 0,0 l/m 0 min 0 min 116 W/m 16,1 km/h (3 Bft) 95,74 %
15.02.2022 11:46 7,3 C 7,2 C 4,4 C 84 % 1012,8 hPa 0,0 l/m 0 min 0 min 155 W/m 16,1 km/h (3 Bft) 97,87 %
15.02.2022 11:48 7,3 C 7,2 C 4,4 C 84 % 1012,8 hPa 0,0 l/m 0 min 0 min 152 W/m 19,3 km/h (3 Bft) 97,83 %
15.02.2022 11:50 7,3 C 7,8 C 4,4 C 84 % 1012,9 hPa 0,0 l/m 0 min 0 min 184 W/m 19,3 km/h (3 Bft) 95,74 %
15.02.2022 11:52 7,4 C 9,4 C 5,6 C 83 % 1012,9 hPa 0,0 l/m 0 min 0 min 158 W/m 22,5 km/h (4 Bft) 93,48 %
15.02.2022 11:54 7,6 C 10,0 C 5,6 C 83 % 1013,0 hPa 0,0 l/m 2 min 0 min 444 W/m 19,3 km/h (3 Bft) 97,87 %
15.02.2022 11:56 7,7 C 10,0 C 5,6 C 82 % 1013,0 hPa 0,0 l/m 2 min 0 min 232 W/m 19,3 km/h (3 Bft) 95,74 %
15.02.2022 11:58 7,7 C 8,9 C 5,6 C 82 % 1013,0 hPa 0,0 l/m 0 min 0 min 159 W/m 19,3 km/h (3 Bft) 95,74 %
15.02.2022 12:00 7,7 C 8,3 C 5,0 C 81 % 1013,1 hPa 0,0 l/m 0 min 0 min 214 W/m 19,3 km/h (3 Bft) 97,87 %
15.02.2022 12:02 7,7 C 9,4 C 5,0 C 81 % 1013,0 hPa 0,0 l/m 0 min 0 min 210 W/m 19,3 km/h (3 Bft) 97,87 %
15.02.2022 12:04 7,8 C 10,0 C 5,6 C 81 % 1013,0 hPa 0,0 l/m 2 min 0 min 310 W/m 19,3 km/h (3 Bft) 97,83 %
15.02.2022 12:06 7,9 C 10,0 C 5,6 C 80 % 1012,9 hPa 0,0 l/m 0 min 0 min 198 W/m 16,1 km/h (3 Bft) 98,15 %
15.02.2022 12:08 8,0 C 9,4 C 5,6 C 80 % 1012,8 hPa 0,0 l/m 0 min 0 min 185 W/m 19,3 km/h (3 Bft) 97,87 %
15.02.2022 12:10 8,1 C 8,9 C 5,6 C 79 % 1012,8 hPa 0,0 l/m 0 min 0 min 160 W/m 12,9 km/h (3 Bft) 97,37 %
15.02.2022 12:12 8,1 C 8,3 C 5,0 C 79 % 1012,8 hPa 0,0 l/m 0 min 0 min 100 W/m 12,9 km/h (3 Bft) 97,87 %
15.02.2022 12:14 8,1 C 7,8 C 5,0 C 79 % 1012,8 hPa 0,0 l/m 0 min 0 min 101 W/m 16,1 km/h (3 Bft) 95,65 %
15.02.2022 12:16 8,0 C 7,8 C 5,0 C 79 % 1012,8 hPa 0,0 l/m 0 min 0 min 144 W/m 16,1 km/h (3 Bft) 100,00 %
15.02.2022 12:18 8,0 C 8,3 C 5,6 C 79 % 1012,8 hPa 0,0 l/m 0 min 0 min 194 W/m 22,5 km/h (4 Bft) 100,00 %
15.02.2022 12:20 8,0 C 9,4 C 6,1 C 79 % 1012,8 hPa 0,0 l/m 2 min 0 min 301 W/m 25,7 km/h (4 Bft) 100,00 %
15.02.2022 12:22 8,1 C 10,6 C 7,2 C 79 % 1012,7 hPa 0,0 l/m 2 min 0 min 235 W/m 12,9 km/h (3 Bft) 97,87 %
15.02.2022 12:24 8,2 C 11,7 C 7,8 C 79 % 1012,7 hPa 0,0 l/m 0 min 0 min 125 W/m 22,5 km/h (4 Bft) 100,00 %
15.02.2022 12:26 8,2 C 12,2 C 7,8 C 79 % 1012,8 hPa 0,0 l/m 0 min 0 min 150 W/m 22,5 km/h (4 Bft) 100,00 %
15.02.2022 12:28 8,3 C 11,7 C 7,8 C 79 % 1012,8 hPa 0,0 l/m 0 min 0 min 114 W/m 16,1 km/h (3 Bft) 100,00 %
15.02.2022 12:30 8,4 C 11,7 C 7,8 C 79 % 1012,8 hPa 0,0 l/m 0 min 0 min 205 W/m 25,7 km/h (4 Bft) 100,00 %
15.02.2022 12:32 8,4 C 11,1 C 7,8 C 78 % 1012,8 hPa 0,0 l/m 0 min 0 min 196 W/m 19,3 km/h (3 Bft) 95,74 %
15.02.2022 12:34 8,5 C 11,1 C 7,8 C 77 % 1012,8 hPa 0,0 l/m 0 min 0 min 202 W/m 22,5 km/h (4 Bft) 95,74 %
15.02.2022 12:36 8,6 C 12,2 C 7,2 C 76 % 1012,7 hPa 0,0 l/m 2 min 0 min 231 W/m 19,3 km/h (3 Bft) 97,87 %
15.02.2022 12:38 8,6 C 11,7 C 6,7 C 75 % 1012,7 hPa 0,0 l/m 2 min 0 min 252 W/m 29,0 km/h (5 Bft) 97,83 %
15.02.2022 12:40 8,6 C 11,7 C 6,7 C 75 % 1012,6 hPa 0,0 l/m 2 min 0 min 386 W/m 25,7 km/h (4 Bft) 95,74 %
15.02.2022 12:42 8,6 C 10,0 C 6,1 C 75 % 1012,6 hPa 0,0 l/m 2 min 0 min 415 W/m 6,4 km/h (2 Bft) 41,18 %
15.02.2022 12:44 8,5 C 9,4 C 5,6 C 74 % 1012,6 hPa 0,0 l/m 2 min 0 min 415 W/m 12,9 km/h (3 Bft) 95,83 %
15.02.2022 12:46 8,4 C 10,0 C 5,6 C 74 % 1012,6 hPa 0,0 l/m 2 min 0 min 401 W/m 16,1 km/h (3 Bft) 95,74 %
15.02.2022 12:48 8,4 C 10,6 C 5,0 C 74 % 1012,5 hPa 0,0 l/m 2 min 0 min 265 W/m 29,0 km/h (5 Bft) 97,87 %
15.02.2022 12:50 8,4 C 11,1 C 5,0 C 73 % 1012,5 hPa 0,0 l/m 0 min 0 min 124 W/m 19,3 km/h (3 Bft) 97,83 %
15.02.2022 12:52 8,5 C 11,7 C 5,0 C 73 % 1012,6 hPa 0,0 l/m 2 min 0 min 470 W/m 16,1 km/h (3 Bft) 97,87 %
15.02.2022 12:54 8,5 C 11,7 C 5,0 C 73 % 1012,6 hPa 0,0 l/m 0 min 0 min 203 W/m 32,2 km/h (5 Bft) 97,87 %
15.02.2022 12:56 8,5 C 12,2 C 5,0 C 73 % 1012,6 hPa 0,0 l/m 2 min 0 min 441 W/m 29,0 km/h (5 Bft) 97,87 %
15.02.2022 12:58 8,6 C 13,9 C 5,0 C 73 % 1012,6 hPa 0,0 l/m 2 min 0 min 513 W/m 22,5 km/h (4 Bft) 95,74 %
15.02.2022 13:00 8,7 C 16,7 C 5,6 C 73 % 1012,5 hPa 0,0 l/m 2 min 0 min 527 W/m 16,1 km/h (3 Bft) 97,83 %
15.02.2022 13:02 8,8 C 16,1 C 5,6 C 72 % 1012,5 hPa 0,0 l/m 2 min 0 min 551 W/m 22,5 km/h (4 Bft) 97,87 %
15.02.2022 13:04 8,8 C 12,8 C 5,6 C 72 % 1012,6 hPa 0,0 l/m 2 min 0 min 484 W/m 29,0 km/h (5 Bft) 97,87 %
15.02.2022 13:06 8,8 C 11,7 C 5,6 C 72 % 1012,6 hPa 0,0 l/m 0 min 0 min 143 W/m 16,1 km/h (3 Bft) 97,87 %
15.02.2022 13:08 8,8 C 12,8 C 5,0 C 72 % 1012,5 hPa 0,0 l/m 0 min 0 min 144 W/m 19,3 km/h (3 Bft) 97,87 %
15.02.2022 13:10 8,8 C 15,0 C 5,0 C 73 % 1012,5 hPa 0,0 l/m 2 min 0 min 521 W/m 22,5 km/h (4 Bft) 97,87 %
15.02.2022 13:12 8,8 C 17,8 C 5,6 C 73 % 1012,4 hPa 0,0 l/m 2 min 0 min 555 W/m 9,7 km/h (2 Bft) 97,83 %
15.02.2022 13:14 9,1 C 19,4 C 5,6 C 74 % 1012,4 hPa 0,0 l/m 2 min 0 min 578 W/m 9,7 km/h (2 Bft) 97,87 %
15.02.2022 13:16 9,3 C 20,6 C 6,1 C 74 % 1012,3 hPa 0,0 l/m 2 min 0 min 595 W/m 22,5 km/h (4 Bft) 95,74 %
15.02.2022 13:18 9,5 C 20,0 C 6,1 C 72 % 1012,3 hPa 0,0 l/m 2 min 0 min 603 W/m 12,9 km/h (3 Bft) 97,87 %
15.02.2022 13:20 9,6 C 19,4 C 6,1 C 71 % 1012,3 hPa 0,0 l/m 2 min 0 min 563 W/m 22,5 km/h (4 Bft) 100,00 %
15.02.2022 13:22 9,7 C 19,4 C 6,1 C 70 % 1012,3 hPa 0,0 l/m 2 min 0 min 544 W/m 25,7 km/h (4 Bft) 100,00 %
15.02.2022 13:24 9,8 C 18,3 C 6,1 C 68 % 1012,2 hPa 0,0 l/m 2 min 0 min 529 W/m 32,2 km/h (5 Bft) 100,00 %
15.02.2022 13:26 9,8 C 17,8 C 6,1 C 67 % 1012,3 hPa 0,0 l/m 2 min 0 min 524 W/m 35,4 km/h (5 Bft) 100,00 %
15.02.2022 13:28 9,8 C 16,7 C 6,1 C 68 % 1012,3 hPa 0,0 l/m 2 min 0 min 516 W/m 19,3 km/h (3 Bft) 97,87 %
15.02.2022 13:30 9,7 C 13,9 C 5,6 C 68 % 1012,3 hPa 0,0 l/m 2 min 0 min 508 W/m 19,3 km/h (3 Bft) 100,00 %
15.02.2022 13:32 9,6 C 13,3 C 5,6 C 69 % 1012,2 hPa 0,0 l/m 2 min 0 min 370 W/m 19,3 km/h (3 Bft) 97,87 %
15.02.2022 13:34 9,5 C 13,9 C 5,6 C 69 % 1012,2 hPa 0,0 l/m 2 min 0 min 325 W/m 29,0 km/h (5 Bft) 97,87 %
15.02.2022 13:36 9,3 C 12,8 C 5,6 C 69 % 1012,2 hPa 0,0 l/m 2 min 0 min 432 W/m 25,7 km/h (4 Bft) 97,83 %
15.02.2022 13:38 9,3 C 13,3 C 5,6 C 69 % 1012,1 hPa 0,0 l/m 2 min 0 min 344 W/m 22,5 km/h (4 Bft) 100,00 %
15.02.2022 13:40 9,3 C 14,4 C 5,6 C 69 % 1012,0 hPa 0,0 l/m 2 min 0 min 467 W/m 19,3 km/h (3 Bft) 100,00 %
15.02.2022 13:42 9,3 C 14,4 C 5,6 C 69 % 1012,1 hPa 0,0 l/m 2 min 0 min 500 W/m 48,3 km/h (6 Bft) 95,74 %
15.02.2022 13:44 9,4 C 15,6 C 5,6 C 68 % 1012,0 hPa 0,0 l/m 2 min 0 min 522 W/m 19,3 km/h (3 Bft) 97,87 %
15.02.2022 13:46 9,6 C 15,6 C 6,1 C 69 % 1012,0 hPa 0,0 l/m 2 min 0 min 472 W/m 29,0 km/h (5 Bft) 97,87 %
15.02.2022 13:48 9,6 C 14,4 C 6,1 C 68 % 1012,0 hPa 0,0 l/m 2 min 0 min 509 W/m 35,4 km/h (5 Bft) 97,83 %
15.02.2022 13:50 9,7 C 14,4 C 6,1 C 68 % 1012,0 hPa 0,0 l/m 2 min 0 min 507 W/m 32,2 km/h (5 Bft) 97,87 %
15.02.2022 13:52 9,7 C 15,0 C 6,1 C 68 % 1012,0 hPa 0,0 l/m 2 min 0 min 533 W/m 29,0 km/h (5 Bft) 97,87 %
15.02.2022 13:54 9,7 C 13,3 C 6,1 C 67 % 1012,1 hPa 0,0 l/m 2 min 0 min 506 W/m 35,4 km/h (5 Bft) 97,87 %
15.02.2022 13:56 9,7 C 13,9 C 6,1 C 68 % 1012,1 hPa 0,0 l/m 2 min 0 min 482 W/m 22,5 km/h (4 Bft) 97,87 %
15.02.2022 13:58 9,7 C 15,0 C 6,1 C 69 % 1012,0 hPa 0,0 l/m 2 min 0 min 513 W/m 12,9 km/h (3 Bft) 97,87 %
15.02.2022 14:00 9,8 C 15,0 C 6,1 C 69 % 1012,0 hPa 0,0 l/m 2 min 0 min 477 W/m 16,1 km/h (3 Bft) 97,83 %
15.02.2022 14:02 9,8 C 13,9 C 6,1 C 68 % 1012,0 hPa 0,0 l/m 2 min 0 min 515 W/m 35,4 km/h (5 Bft) 95,74 %
15.02.2022 14:04 9,8 C 13,3 C 6,1 C 68 % 1011,9 hPa 0,0 l/m 2 min 0 min 330 W/m 16,1 km/h (3 Bft) 97,87 %
15.02.2022 14:06 9,7 C 12,8 C 5,6 C 68 % 1011,9 hPa 0,0 l/m 2 min 0 min 273 W/m 16,1 km/h (3 Bft) 97,87 %
15.02.2022 14:08 9,7 C 12,8 C 5,6 C 67 % 1012,0 hPa 0,0 l/m 2 min 0 min 291 W/m 19,3 km/h (3 Bft) 95,74 %
15.02.2022 14:10 9,7 C 13,3 C 5,6 C 68 % 1011,9 hPa 0,0 l/m 2 min 0 min 332 W/m 19,3 km/h (3 Bft) 97,87 %
15.02.2022 14:12 9,8 C 14,4 C 6,1 C 68 % 1011,9 hPa 0,0 l/m 2 min 0 min 423 W/m 12,9 km/h (3 Bft) 97,83 %
15.02.2022 14:14 9,9 C 14,4 C 6,1 C 67 % 1011,9 hPa 0,0 l/m 2 min 0 min 442 W/m 12,9 km/h (3 Bft) 95,74 %
15.02.2022 14:16 9,9 C 15,6 C 6,1 C 67 % 1011,9 hPa 0,0 l/m 2 min 0 min 462 W/m 16,1 km/h (3 Bft) 97,87 %
15.02.2022 14:18 10,1 C 15,0 C 6,1 C 67 % 1011,8 hPa 0,0 l/m 2 min 0 min 483 W/m 22,5 km/h (4 Bft) 97,87 %
15.02.2022 14:20 10,1 C 13,9 C 6,1 C 66 % 1011,9 hPa 0,0 l/m 2 min 0 min 456 W/m 35,4 km/h (5 Bft) 97,87 %
15.02.2022 14:22 9,9 C 13,3 C 5,6 C 65 % 1011,8 hPa 0,0 l/m 2 min 0 min 437 W/m 32,2 km/h (5 Bft) 97,87 %
15.02.2022 14:24 9,9 C 13,3 C 5,6 C 65 % 1011,6 hPa 0,0 l/m 2 min 0 min 430 W/m 35,4 km/h (5 Bft) 95,65 %
15.02.2022 14:26 9,8 C 12,2 C 5,6 C 65 % 1011,6 hPa 0,0 l/m 2 min 0 min 418 W/m 48,3 km/h (6 Bft) 97,87 %
15.02.2022 14:28 9,8 C 12,8 C 5,6 C 66 % 1011,6 hPa 0,0 l/m 2 min 0 min 414 W/m 29,0 km/h (5 Bft) 97,87 %
15.02.2022 14:30 9,7 C 12,8 C 5,6 C 66 % 1011,7 hPa 0,0 l/m 2 min 0 min 407 W/m 25,7 km/h (4 Bft) 100,00 %
15.02.2022 14:32 9,7 C 12,2 C 5,6 C 65 % 1011,6 hPa 0,0 l/m 2 min 0 min 402 W/m 29,0 km/h (5 Bft) 100,00 %
15.02.2022 14:34 9,8 C 12,8 C 5,6 C 65 % 1011,6 hPa 0,0 l/m 2 min 0 min 403 W/m 25,7 km/h (4 Bft) 97,87 %
15.02.2022 14:36 9,8 C 13,3 C 5,6 C 65 % 1011,6 hPa 0,0 l/m 2 min 0 min 389 W/m 22,5 km/h (4 Bft) 100,00 %
15.02.2022 14:38 9,8 C 13,3 C 5,6 C 65 % 1011,8 hPa 0,0 l/m 2 min 0 min 386 W/m 38,6 km/h (5 Bft) 100,00 %
15.02.2022 14:40 9,7 C 13,3 C 5,6 C 65 % 1011,7 hPa 0,0 l/m 2 min 0 min 368 W/m 32,2 km/h (5 Bft) 100,00 %
15.02.2022 14:42 9,8 C 13,3 C 5,6 C 65 % 1011,6 hPa 0,0 l/m 2 min 0 min 372 W/m 32,2 km/h (5 Bft) 97,87 %
15.02.2022 14:44 9,7 C 12,8 C 5,6 C 65 % 1011,7 hPa 0,0 l/m 2 min 0 min 368 W/m 32,2 km/h (5 Bft) 100,00 %
15.02.2022 14:46 9,8 C 12,8 C 5,6 C 65 % 1011,6 hPa 0,0 l/m 2 min 0 min 368 W/m 22,5 km/h (4 Bft) 100,00 %
15.02.2022 14:48 9,8 C 13,3 C 5,6 C 66 % 1011,7 hPa 0,0 l/m 2 min 0 min 379 W/m 12,9 km/h (3 Bft) 100,00 %
15.02.2022 14:50 9,9 C 13,9 C 5,6 C 66 % 1011,7 hPa 0,0 l/m 2 min 0 min 390 W/m 16,1 km/h (3 Bft) 97,87 %
15.02.2022 14:52 9,9 C 13,3 C 5,6 C 66 % 1011,7 hPa 0,0 l/m 2 min 0 min 397 W/m 19,3 km/h (3 Bft) 97,87 %
15.02.2022 14:54 9,9 C 12,8 C 5,6 C 65 % 1011,7 hPa 0,0 l/m 2 min 0 min 410 W/m 19,3 km/h (3 Bft) 95,74 %
15.02.2022 14:56 9,9 C 11,1 C 5,6 C 64 % 1011,6 hPa 0,0 l/m 0 min 0 min 138 W/m 19,3 km/h (3 Bft) 97,87 %
15.02.2022 14:58 9,8 C 10,6 C 5,6 C 65 % 1011,7 hPa 0,0 l/m 0 min 0 min 152 W/m 25,7 km/h (4 Bft) 97,87 %
15.02.2022 15:00 9,8 C 10,0 C 5,6 C 65 % 1011,7 hPa 0,0 l/m 0 min 0 min 123 W/m 22,5 km/h (4 Bft) 97,83 %
15.02.2022 15:02 9,7 C 9,4 C 5,6 C 65 % 1011,6 hPa 0,0 l/m 0 min 0 min 119 W/m 16,1 km/h (3 Bft) 95,74 %
15.02.2022 15:04 9,6 C 9,4 C 5,6 C 66 % 1011,6 hPa 0,0 l/m 0 min 0 min 122 W/m 22,5 km/h (4 Bft) 97,87 %
15.02.2022 15:06 9,5 C 9,4 C 5,6 C 66 % 1011,6 hPa 0,0 l/m 0 min 0 min 124 W/m 38,6 km/h (5 Bft) 97,87 %
15.02.2022 15:08 9,4 C 9,4 C 5,6 C 66 % 1011,5 hPa 0,0 l/m 0 min 0 min 144 W/m 22,5 km/h (4 Bft) 95,74 %
15.02.2022 15:10 9,4 C 9,4 C 5,6 C 66 % 1011,5 hPa 0,0 l/m 0 min 0 min 151 W/m 29,0 km/h (5 Bft) 95,74 %
15.02.2022 15:12 9,3 C 9,4 C 5,6 C 66 % 1011,5 hPa 0,0 l/m 0 min 0 min 136 W/m 29,0 km/h (5 Bft) 95,65 %
15.02.2022 15:14 9,3 C 9,4 C 5,6 C 67 % 1011,5 hPa 0,0 l/m 0 min 0 min 144 W/m 16,1 km/h (3 Bft) 95,74 %
15.02.2022 15:16 9,3 C 9,4 C 5,6 C 66 % 1011,5 hPa 0,0 l/m 0 min 0 min 131 W/m 51,5 km/h (7 Bft) 91,49 %
15.02.2022 15:18 9,3 C 9,4 C 5,6 C 67 % 1011,5 hPa 0,0 l/m 0 min 0 min 141 W/m 29,0 km/h (5 Bft) 91,49 %
15.02.2022 15:20 9,3 C 9,4 C 5,6 C 67 % 1011,4 hPa 0,0 l/m 0 min 0 min 149 W/m 25,7 km/h (4 Bft) 95,74 %
15.02.2022 15:22 9,3 C 10,0 C 5,6 C 67 % 1011,4 hPa 0,0 l/m 2 min 0 min 212 W/m 25,7 km/h (4 Bft) 95,74 %
15.02.2022 15:24 9,3 C 10,0 C 5,6 C 67 % 1011,3 hPa 0,0 l/m 2 min 0 min 208 W/m 48,3 km/h (6 Bft) 97,83 %
15.02.2022 15:26 9,4 C 10,6 C 5,6 C 67 % 1011,2 hPa 0,0 l/m 2 min 0 min 235 W/m 22,5 km/h (4 Bft) 93,62 %
15.02.2022 15:28 9,4 C 10,6 C 5,6 C 68 % 1011,2 hPa 0,0 l/m 2 min 0 min 210 W/m 19,3 km/h (3 Bft) 93,62 %
15.02.2022 15:30 9,5 C 10,6 C 5,6 C 67 % 1011,2 hPa 0,0 l/m 2 min 0 min 227 W/m 32,2 km/h (5 Bft) 95,74 %
15.02.2022 15:32 9,5 C 10,6 C 5,6 C 67 % 1011,2 hPa 0,0 l/m 2 min 0 min 215 W/m 38,6 km/h (5 Bft) 95,74 %
15.02.2022 15:34 9,5 C 10,6 C 5,0 C 67 % 1011,2 hPa 0,0 l/m 2 min 0 min 195 W/m 22,5 km/h (4 Bft) 93,48 %
15.02.2022 15:36 9,5 C 10,6 C 5,0 C 67 % 1011,2 hPa 0,0 l/m 2 min 0 min 174 W/m 25,7 km/h (4 Bft) 95,74 %
15.02.2022 15:38 9,5 C 10,6 C 5,0 C 67 % 1011,1 hPa 0,0 l/m 2 min 0 min 166 W/m 29,0 km/h (5 Bft) 95,74 %
15.02.2022 15:40 9,4 C 10,6 C 5,0 C 67 % 1011,1 hPa 0,0 l/m 2 min 0 min 191 W/m 25,7 km/h (4 Bft) 95,74 %
15.02.2022 15:42 9,4 C 10,6 C 5,0 C 67 % 1011,0 hPa 0,0 l/m 2 min 0 min 202 W/m 32,2 km/h (5 Bft) 93,62 %
15.02.2022 15:44 9,4 C 10,6 C 5,0 C 66 % 1011,0 hPa 0,0 l/m 2 min 0 min 211 W/m 25,7 km/h (4 Bft) 95,74 %
15.02.2022 15:46 9,5 C 10,0 C 5,0 C 66 % 1010,9 hPa 0,0 l/m 2 min 0 min 184 W/m 35,4 km/h (5 Bft) 97,87 %
15.02.2022 15:48 9,5 C 10,0 C 5,0 C 66 % 1010,9 hPa 0,0 l/m 2 min 0 min 159 W/m 41,8 km/h (6 Bft) 97,83 %
15.02.2022 15:50 9,5 C 9,4 C 5,0 C 66 % 1010,8 hPa 0,0 l/m 2 min 0 min 173 W/m 25,7 km/h (4 Bft) 97,87 %
15.02.2022 15:52 9,5 C 9,4 C 5,0 C 66 % 1010,8 hPa 0,0 l/m 2 min 0 min 161 W/m 32,2 km/h (5 Bft) 95,74 %
15.02.2022 15:54 9,5 C 9,4 C 5,0 C 66 % 1010,7 hPa 0,0 l/m 2 min 0 min 144 W/m 25,7 km/h (4 Bft) 97,87 %
15.02.2022 15:56 9,5 C 9,4 C 5,0 C 66 % 1010,7 hPa 0,0 l/m 2 min 0 min 136 W/m 29,0 km/h (5 Bft) 100,00 %
15.02.2022 15:58 9,5 C 9,4 C 5,0 C 66 % 1010,7 hPa 0,0 l/m 2 min 0 min 128 W/m 32,2 km/h (5 Bft) 97,87 %
15.02.2022 16:00 9,5 C 9,4 C 5,0 C 67 % 1010,6 hPa 0,0 l/m 2 min 0 min 124 W/m 35,4 km/h (5 Bft) 97,83 %
15.02.2022 16:02 9,4 C 8,9 C 5,0 C 67 % 1010,6 hPa 0,0 l/m 2 min 0 min 120 W/m 22,5 km/h (4 Bft) 95,74 %
15.02.2022 16:04 9,4 C 8,9 C 5,0 C 67 % 1010,5 hPa 0,0 l/m 2 min 0 min 119 W/m 19,3 km/h (3 Bft) 100,00 %
15.02.2022 16:06 9,4 C 8,9 C 5,0 C 67 % 1010,6 hPa 0,0 l/m 0 min 0 min 114 W/m 35,4 km/h (5 Bft) 100,00 %
15.02.2022 16:08 9,3 C 8,9 C 5,0 C 67 % 1010,4 hPa 0,0 l/m 2 min 0 min 116 W/m 32,2 km/h (5 Bft) 97,87 %
15.02.2022 16:10 9,3 C 8,9 C 5,0 C 67 % 1010,4 hPa 0,0 l/m 2 min 0 min 115 W/m 25,7 km/h (4 Bft) 100,00 %
15.02.2022 16:12 9,3 C 8,9 C 5,0 C 67 % 1010,4 hPa 0,0 l/m 2 min 0 min 112 W/m 32,2 km/h (5 Bft) 97,83 %
15.02.2022 16:14 9,3 C 8,9 C 5,0 C 67 % 1010,4 hPa 0,0 l/m 2 min 0 min 107 W/m 29,0 km/h (5 Bft) 100,00 %
15.02.2022 16:16 9,3 C 8,9 C 5,0 C 67 % 1010,3 hPa 0,0 l/m 2 min 0 min 105 W/m 25,7 km/h (4 Bft) 97,87 %
15.02.2022 16:18 9,3 C 8,9 C 5,0 C 68 % 1010,3 hPa 0,0 l/m 0 min 0 min 101 W/m 19,3 km/h (3 Bft) 100,00 %
15.02.2022 16:20 9,3 C 8,9 C 5,0 C 67 % 1010,3 hPa 0,0 l/m 0 min 0 min 97 W/m 35,4 km/h (5 Bft) 97,87 %
15.02.2022 16:22 9,3 C 8,9 C 5,0 C 67 % 1010,2 hPa 0,0 l/m 0 min 0 min 92 W/m 19,3 km/h (3 Bft) 100,00 %
15.02.2022 16:24 9,3 C 8,9 C 5,0 C 67 % 1010,2 hPa 0,0 l/m 0 min 0 min 90 W/m 32,2 km/h (5 Bft) 97,83 %
15.02.2022 16:26 9,3 C 8,9 C 5,0 C 68 % 1010,1 hPa 0,0 l/m 0 min 0 min 88 W/m 25,7 km/h (4 Bft) 95,74 %
15.02.2022 16:28 9,3 C 8,9 C 5,0 C 68 % 1010,1 hPa 0,0 l/m 0 min 0 min 86 W/m 25,7 km/h (4 Bft) 97,87 %
15.02.2022 16:30 9,2 C 8,9 C 5,0 C 68 % 1010,1 hPa 0,0 l/m 0 min 0 min 84 W/m 25,7 km/h (4 Bft) 95,74 %
15.02.2022 16:32 9,2 C 8,9 C 5,0 C 68 % 1010,0 hPa 0,0 l/m 0 min 0 min 81 W/m 29,0 km/h (5 Bft) 95,74 %
15.02.2022 16:34 9,2 C 8,9 C 5,0 C 68 % 1010,0 hPa 0,0 l/m 0 min 0 min 77 W/m 19,3 km/h (3 Bft) 97,83 %
15.02.2022 16:36 9,2 C 8,9 C 5,0 C 68 % 1009,9 hPa 0,0 l/m 0 min 0 min 77 W/m 32,2 km/h (5 Bft) 97,87 %
15.02.2022 16:38 9,2 C 8,9 C 5,0 C 68 % 1009,9 hPa 0,0 l/m 0 min 0 min 77 W/m 29,0 km/h (5 Bft) 97,87 %
15.02.2022 16:40 9,2 C 8,9 C 5,0 C 68 % 1010,0 hPa 0,0 l/m 0 min 0 min 77 W/m 38,6 km/h (5 Bft) 97,87 %
15.02.2022 16:42 9,2 C 8,9 C 5,0 C 68 % 1010,0 hPa 0,0 l/m 2 min 0 min 76 W/m 41,8 km/h (6 Bft) 97,87 %
15.02.2022 16:44 9,2 C 8,9 C 5,0 C 68 % 1009,9 hPa 0,0 l/m 0 min 0 min 73 W/m 32,2 km/h (5 Bft) 97,87 %
15.02.2022 16:46 9,2 C 8,9 C 5,0 C 68 % 1010,0 hPa 0,0 l/m 0 min 0 min 68 W/m 32,2 km/h (5 Bft) 97,83 %
15.02.2022 16:48 9,2 C 8,9 C 5,0 C 68 % 1009,9 hPa 0,0 l/m 0 min 0 min 62 W/m 25,7 km/h (4 Bft) 97,87 %
15.02.2022 16:50 9,2 C 8,9 C 5,0 C 68 % 1009,9 hPa 0,0 l/m 0 min 0 min 58 W/m 25,7 km/h (4 Bft) 97,87 %
15.02.2022 16:52 9,2 C 8,9 C 5,0 C 68 % 1009,9 hPa 0,0 l/m 0 min 0 min 55 W/m 29,0 km/h (5 Bft) 97,87 %
15.02.2022 16:54 9,2 C 8,9 C 5,0 C 68 % 1009,7 hPa 0,0 l/m 0 min 0 min 53 W/m 29,0 km/h (5 Bft) 97,87 %
15.02.2022 16:56 9,2 C 8,3 C 5,0 C 69 % 1009,8 hPa 0,0 l/m 0 min 0 min 51 W/m 29,0 km/h (5 Bft) 97,87 %
15.02.2022 16:58 9,1 C 8,3 C 5,0 C 69 % 1009,7 hPa 0,0 l/m 0 min 0 min 48 W/m 19,3 km/h (3 Bft) 97,83 %
15.02.2022 17:00 9,1 C 8,3 C 4,4 C 69 % 1009,7 hPa 0,0 l/m 0 min 0 min 46 W/m 16,1 km/h (3 Bft) 100,00 %
15.02.2022 17:02 9,1 C 8,3 C 4,4 C 69 % 1009,7 hPa 0,0 l/m 0 min 0 min 44 W/m 16,1 km/h (3 Bft) 100,00 %
15.02.2022 17:04 9,1 C 8,3 C 4,4 C 69 % 1009,7 hPa 0,0 l/m 0 min 0 min 41 W/m 32,2 km/h (5 Bft) 100,00 %
15.02.2022 17:06 9,1 C 8,3 C 4,4 C 69 % 1009,7 hPa 0,0 l/m 0 min 0 min 37 W/m 35,4 km/h (5 Bft) 100,00 %
15.02.2022 17:08 9,0 C 8,3 C 4,4 C 69 % 1009,7 hPa 0,0 l/m 0 min 0 min 33 W/m 22,5 km/h (4 Bft) 100,00 %
15.02.2022 17:10 9,0 C 8,3 C 4,4 C 69 % 1009,7 hPa 0,0 l/m 0 min 0 min 31 W/m 29,0 km/h (5 Bft) 100,00 %
15.02.2022 17:12 9,0 C 8,3 C 4,4 C 69 % 1009,7 hPa 0,0 l/m 0 min 0 min 28 W/m 25,7 km/h (4 Bft) 100,00 %
15.02.2022 17:14 9,0 C 8,3 C 4,4 C 69 % 1009,7 hPa 0,0 l/m 0 min 0 min 24 W/m 22,5 km/h (4 Bft) 100,00 %
15.02.2022 17:16 9,0 C 8,3 C 4,4 C 69 % 1009,7 hPa 0,0 l/m 0 min 0 min 21 W/m 35,4 km/h (5 Bft) 97,87 %
15.02.2022 17:18 9,0 C 8,3 C 4,4 C 69 % 1009,7 hPa 0,0 l/m 0 min 0 min 19 W/m 35,4 km/h (5 Bft) 100,00 %
15.02.2022 17:20 8,9 C 8,3 C 4,4 C 70 % 1009,6 hPa 0,0 l/m 0 min 0 min 15 W/m 19,3 km/h (3 Bft) 100,00 %
15.02.2022 17:22 8,9 C 8,3 C 4,4 C 70 % 1009,5 hPa 0,0 l/m 0 min 0 min 11 W/m 25,7 km/h (4 Bft) 100,00 %
15.02.2022 17:24 8,9 C 8,3 C 4,4 C 70 % 1009,5 hPa 0,0 l/m 0 min 0 min 8 W/m 19,3 km/h (3 Bft) 100,00 %
15.02.2022 17:26 8,9 C 8,3 C 4,4 C 70 % 1009,4 hPa 0,0 l/m 0 min 0 min 5 W/m 19,3 km/h (3 Bft) 100,00 %
15.02.2022 17:28 8,9 C 8,3 C 4,4 C 70 % 1009,4 hPa 0,0 l/m 0 min 0 min 5 W/m 25,7 km/h (4 Bft) 95,74 %
15.02.2022 17:30 8,9 C 8,3 C 4,4 C 70 % 1009,4 hPa 0,0 l/m 0 min 0 min 5 W/m 25,7 km/h (4 Bft) 100,00 %
15.02.2022 17:32 8,9 C 8,3 C 4,4 C 70 % 1009,3 hPa 0,0 l/m 0 min 0 min 5 W/m 25,7 km/h (4 Bft) 100,00 %
15.02.2022 17:34 8,9 C 8,3 C 4,4 C 70 % 1009,3 hPa 0,0 l/m 0 min 0 min 5 W/m 32,2 km/h (5 Bft) 100,00 %
15.02.2022 17:36 8,9 C 8,3 C 4,4 C 70 % 1009,3 hPa 0,0 l/m 0 min 0 min 3 W/m 25,7 km/h (4 Bft) 100,00 %
15.02.2022 17:38 8,9 C 8,3 C 4,4 C 70 % 1009,2 hPa 0,0 l/m 0 min 0 min 0 W/m 45,1 km/h (6 Bft) 97,87 %
15.02.2022 17:40 8,9 C 8,3 C 4,4 C 70 % 1009,3 hPa 0,0 l/m 0 min 0 min 0 W/m 29,0 km/h (5 Bft) 97,87 %
15.02.2022 17:42 8,9 C 8,3 C 4,4 C 69 % 1009,3 hPa 0,0 l/m 0 min 0 min 0 W/m 35,4 km/h (5 Bft) 97,87 %
15.02.2022 17:44 9,0 C 8,3 C 4,4 C 69 % 1009,3 hPa 0,0 l/m 0 min 0 min 0 W/m 35,4 km/h (5 Bft) 97,92 %
15.02.2022 17:46 9,0 C 8,3 C 4,4 C 70 % 1009,2 hPa 0,0 l/m 0 min 0 min 0 W/m 19,3 km/h (3 Bft) 97,87 %
15.02.2022 17:48 9,0 C 8,3 C 4,4 C 69 % 1009,2 hPa 0,0 l/m 0 min 0 min 0 W/m 35,4 km/h (5 Bft) 97,87 %
15.02.2022 17:50 9,0 C 8,3 C 4,4 C 69 % 1009,1 hPa 0,0 l/m 0 min 0 min 0 W/m 25,7 km/h (4 Bft) 97,87 %
15.02.2022 17:52 9,0 C 8,3 C 4,4 C 69 % 1009,1 hPa 0,0 l/m 0 min 0 min 0 W/m 32,2 km/h (5 Bft) 93,62 %
15.02.2022 17:54 9,0 C 8,3 C 4,4 C 70 % 1009,1 hPa 0,0 l/m 0 min 0 min 0 W/m 25,7 km/h (4 Bft) 97,87 %
15.02.2022 17:56 9,0 C 8,3 C 4,4 C 70 % 1009,1 hPa 0,0 l/m 0 min 0 min 0 W/m 32,2 km/h (5 Bft) 93,48 %
15.02.2022 17:58 9,0 C 8,3 C 4,4 C 70 % 1009,0 hPa 0,0 l/m 0 min 0 min 0 W/m 22,5 km/h (4 Bft) 91,49 %
15.02.2022 18:00 9,0 C 8,3 C 4,4 C 70 % 1008,9 hPa 0,0 l/m 0 min 0 min 0 W/m 22,5 km/h (4 Bft) 93,62 %
15.02.2022 18:02 9,0 C 8,3 C 4,4 C 70 % 1008,9 hPa 0,0 l/m 0 min 0 min 0 W/m 25,7 km/h (4 Bft) 94,29 %
15.02.2022 18:04 8,9 C 8,3 C 4,4 C 70 % 1008,9 hPa 0,0 l/m 0 min 0 min 0 W/m 25,7 km/h (4 Bft) 94,92 %
15.02.2022 18:06 9,0 C 8,3 C 4,4 C 70 % 1008,8 hPa 0,0 l/m 0 min 0 min 0 W/m 32,2 km/h (5 Bft) 94,00 %
15.02.2022 18:08 8,9 C 8,3 C 4,4 C 71 % 1008,8 hPa 0,0 l/m 0 min 0 min 0 W/m 29,0 km/h (5 Bft) 95,65 %
15.02.2022 18:10 8,9 C 8,3 C 4,4 C 71 % 1008,9 hPa 0,0 l/m 0 min 0 min 0 W/m 22,5 km/h (4 Bft) 93,62 %
15.02.2022 18:12 8,9 C 8,3 C 4,4 C 71 % 1008,9 hPa 0,0 l/m 0 min 0 min 0 W/m 29,0 km/h (5 Bft) 95,74 %
15.02.2022 18:14 8,9 C 8,3 C 4,4 C 71 % 1008,8 hPa 0,0 l/m 0 min 0 min 0 W/m 35,4 km/h (5 Bft) 94,29 %
15.02.2022 18:16 8,9 C 8,3 C 4,4 C 71 % 1008,8 hPa 0,0 l/m 0 min 0 min 0 W/m 19,3 km/h (3 Bft) 96,43 %
15.02.2022 18:18 8,9 C 8,3 C 4,4 C 71 % 1008,8 hPa 0,0 l/m 0 min 0 min 0 W/m 16,1 km/h (3 Bft) 93,62 %
15.02.2022 18:20 8,9 C 8,3 C 4,4 C 71 % 1008,8 hPa 0,0 l/m 0 min 0 min 0 W/m 29,0 km/h (5 Bft) 95,65 %
15.02.2022 18:22 8,9 C 8,3 C 4,4 C 71 % 1008,8 hPa 0,0 l/m 0 min 0 min 0 W/m 22,5 km/h (4 Bft) 95,74 %
15.02.2022 18:24 8,9 C 8,3 C 4,4 C 71 % 1008,8 hPa 0,0 l/m 0 min 0 min 0 W/m 25,7 km/h (4 Bft) 93,62 %
15.02.2022 18:26 8,9 C 8,3 C 4,4 C 72 % 1008,8 hPa 0,0 l/m 0 min 0 min 0 W/m 19,3 km/h (3 Bft) 95,74 %
15.02.2022 18:28 8,9 C 8,3 C 4,4 C 72 % 1008,8 hPa 0,0 l/m 0 min 0 min 0 W/m 25,7 km/h (4 Bft) 95,74 %
15.02.2022 18:30 8,8 C 8,3 C 4,4 C 72 % 1008,7 hPa 0,0 l/m 0 min 0 min 0 W/m 22,5 km/h (4 Bft) 95,74 %
15.02.2022 18:32 8,8 C 8,3 C 4,4 C 72 % 1008,8 hPa 0,0 l/m 0 min 0 min 0 W/m 25,7 km/h (4 Bft) 95,65 %
15.02.2022 18:34 8,8 C 8,3 C 4,4 C 72 % 1008,7 hPa 0,0 l/m 0 min 0 min 0 W/m 25,7 km/h (4 Bft) 95,74 %
15.02.2022 18:36 8,8 C 8,3 C 4,4 C 72 % 1008,7 hPa 0,0 l/m 0 min 0 min 0 W/m 38,6 km/h (5 Bft) 95,74 %
15.02.2022 18:38 8,8 C 8,3 C 4,4 C 72 % 1008,8 hPa 0,0 l/m 0 min 0 min 0 W/m 22,5 km/h (4 Bft) 93,62 %
15.02.2022 18:40 8,9 C 8,3 C 4,4 C 72 % 1008,8 hPa 0,0 l/m 0 min 0 min 0 W/m 32,2 km/h (5 Bft) 95,74 %
15.02.2022 18:42 8,9 C 8,3 C 4,4 C 72 % 1008,7 hPa 0,0 l/m 0 min 0 min 0 W/m 29,0 km/h (5 Bft) 95,74 %
15.02.2022 18:44 8,9 C 8,3 C 4,4 C 72 % 1008,7 hPa 0,0 l/m 0 min 0 min 0 W/m 38,6 km/h (5 Bft) 97,83 %
15.02.2022 18:46 8,9 C 8,3 C 4,4 C 72 % 1008,7 hPa 0,0 l/m 0 min 0 min 0 W/m 22,5 km/h (4 Bft) 97,87 %
15.02.2022 18:48 8,9 C 8,3 C 4,4 C 73 % 1008,7 hPa 0,0 l/m 0 min 0 min 0 W/m 22,5 km/h (4 Bft) 97,87 %
15.02.2022 18:50 8,9 C 8,3 C 4,4 C 73 % 1008,7 hPa 0,0 l/m 0 min 0 min 0 W/m 32,2 km/h (5 Bft) 93,62 %
15.02.2022 18:52 8,9 C 8,3 C 4,4 C 73 % 1008,7 hPa 0,0 l/m 0 min 0 min 0 W/m 32,2 km/h (5 Bft) 95,74 %
15.02.2022 18:54 8,9 C 8,3 C 4,4 C 73 % 1008,7 hPa 0,0 l/m 0 min 0 min 0 W/m 35,4 km/h (5 Bft) 97,87 %
15.02.2022 18:56 8,9 C 8,3 C 4,4 C 73 % 1008,7 hPa 0,0 l/m 0 min 0 min 0 W/m 29,0 km/h (5 Bft) 97,83 %
15.02.2022 18:58 9,0 C 8,3 C 4,4 C 73 % 1008,8 hPa 0,0 l/m 0 min 0 min 0 W/m 35,4 km/h (5 Bft) 100,00 %
15.02.2022 19:00 9,0 C 8,3 C 4,4 C 73 % 1008,7 hPa 0,0 l/m 0 min 0 min 0 W/m 32,2 km/h (5 Bft) 97,87 %
15.02.2022 19:02 9,0 C 8,3 C 4,4 C 73 % 1008,8 hPa 0,0 l/m 0 min 0 min 0 W/m 35,4 km/h (5 Bft) 100,00 %
15.02.2022 19:04 9,1 C 8,3 C 4,4 C 73 % 1008,8 hPa 0,0 l/m 0 min 0 min 0 W/m 22,5 km/h (4 Bft) 100,00 %
15.02.2022 19:06 9,1 C 8,3 C 5,0 C 73 % 1008,8 hPa 0,0 l/m 0 min 0 min 0 W/m 22,5 km/h (4 Bft) 100,00 %
15.02.2022 19:08 9,1 C 8,3 C 4,4 C 73 % 1008,7 hPa 0,0 l/m 0 min 0 min 0 W/m 29,0 km/h (5 Bft) 100,00 %
15.02.2022 19:10 9,1 C 8,3 C 4,4 C 73 % 1008,7 hPa 0,0 l/m 0 min 0 min 0 W/m 25,7 km/h (4 Bft) 100,00 %
15.02.2022 19:12 9,1 C 8,3 C 5,0 C 73 % 1008,7 hPa 0,0 l/m 0 min 0 min 0 W/m 35,4 km/h (5 Bft) 100,00 %
15.02.2022 19:14 9,1 C 8,3 C 5,0 C 73 % 1008,6 hPa 0,0 l/m 0 min 0 min 0 W/m 29,0 km/h (5 Bft) 100,00 %
15.02.2022 19:16 9,1 C 8,3 C 5,0 C 74 % 1008,7 hPa 0,0 l/m 0 min 0 min 0 W/m 19,3 km/h (3 Bft) 97,87 %
15.02.2022 19:18 9,1 C 8,3 C 5,0 C 74 % 1008,7 hPa 0,0 l/m 0 min 0 min 0 W/m 25,7 km/h (4 Bft) 100,00 %
15.02.2022 19:20 9,1 C 8,3 C 5,0 C 74 % 1008,8 hPa 0,0 l/m 0 min 0 min 0 W/m 22,5 km/h (4 Bft) 100,00 %
15.02.2022 19:22 9,1 C 8,3 C 5,0 C 74 % 1008,7 hPa 0,0 l/m 0 min 0 min 0 W/m 45,1 km/h (6 Bft) 100,00 %
15.02.2022 19:24 9,2 C 8,3 C 5,0 C 74 % 1008,7 hPa 0,0 l/m 0 min 0 min 0 W/m 25,7 km/h (4 Bft) 95,74 %
15.02.2022 19:26 9,2 C 8,3 C 5,0 C 74 % 1008,6 hPa 0,0 l/m 0 min 0 min 0 W/m 32,2 km/h (5 Bft) 100,00 %
15.02.2022 19:28 9,2 C 8,3 C 4,4 C 74 % 1008,6 hPa 0,0 l/m 0 min 0 min 0 W/m 35,4 km/h (5 Bft) 97,87 %
15.02.2022 19:30 9,2 C 8,3 C 4,4 C 75 % 1008,6 hPa 0,0 l/m 0 min 0 min 0 W/m 38,6 km/h (5 Bft) 100,00 %
15.02.2022 19:32 9,2 C 8,3 C 4,4 C 75 % 1008,6 hPa 0,0 l/m 0 min 0 min 0 W/m 25,7 km/h (4 Bft) 100,00 %
15.02.2022 19:34 9,1 C 8,3 C 4,4 C 75 % 1008,7 hPa 0,0 l/m 0 min 0 min 0 W/m 29,0 km/h (5 Bft) 100,00 %
15.02.2022 19:36 9,1 C 8,3 C 4,4 C 76 % 1008,6 hPa 0,0 l/m 0 min 0 min 0 W/m 35,4 km/h (5 Bft) 100,00 %
15.02.2022 19:38 9,1 C 8,3 C 4,4 C 76 % 1008,5 hPa 0,0 l/m 0 min 0 min 0 W/m 35,4 km/h (5 Bft) 100,00 %
15.02.2022 19:40 9,1 C 8,3 C 4,4 C 76 % 1008,5 hPa 0,0 l/m 0 min 0 min 0 W/m 22,5 km/h (4 Bft) 100,00 %
15.02.2022 19:42 9,1 C 8,3 C 4,4 C 77 % 1008,5 hPa 0,0 l/m 0 min 2 min 0 W/m 35,4 km/h (5 Bft) 100,00 %
15.02.2022 19:44 9,1 C 8,3 C 3,9 C 77 % 1008,5 hPa 0,0 l/m 0 min 2 min 0 W/m 29,0 km/h (5 Bft) 100,00 %
15.02.2022 19:46 9,1 C 8,3 C 3,9 C 77 % 1008,5 hPa 0,0 l/m 0 min 2 min 0 W/m 35,4 km/h (5 Bft) 100,00 %
15.02.2022 19:48 9,0 C 8,3 C 3,9 C 77 % 1008,5 hPa 0,0 l/m 0 min 2 min 0 W/m 25,7 km/h (4 Bft) 100,00 %
15.02.2022 19:50 8,9 C 8,3 C 3,9 C 78 % 1008,4 hPa 0,0 l/m 0 min 0 min 0 W/m 25,7 km/h (4 Bft) 100,00 %
15.02.2022 19:52 8,9 C 7,8 C 3,9 C 78 % 1008,4 hPa 0,0 l/m 0 min 2 min 0 W/m 32,2 km/h (5 Bft) 100,00 %
15.02.2022 19:54 8,9 C 7,8 C 3,9 C 78 % 1008,4 hPa 0,0 l/m 0 min 0 min 0 W/m 38,6 km/h (5 Bft) 100,00 %
15.02.2022 19:56 8,9 C 7,8 C 3,9 C 78 % 1008,5 hPa 0,0 l/m 0 min 0 min 0 W/m 35,4 km/h (5 Bft) 100,00 %
15.02.2022 19:58 8,9 C 7,8 C 3,9 C 79 % 1008,5 hPa 0,0 l/m 0 min 2 min 0 W/m 35,4 km/h (5 Bft) 100,00 %
15.02.2022 20:00 8,8 C 7,8 C 3,9 C 79 % 1008,4 hPa 0,0 l/m 0 min 2 min 0 W/m 35,4 km/h (5 Bft) 100,00 %
15.02.2022 20:02 8,8 C 7,8 C 3,9 C 79 % 1008,4 hPa 0,0 l/m 0 min 2 min 0 W/m 29,0 km/h (5 Bft) 97,92 %
15.02.2022 20:04 8,8 C 7,8 C 3,9 C 79 % 1008,4 hPa 0,0 l/m 0 min 2 min 0 W/m 51,5 km/h (7 Bft) 100,00 %
15.02.2022 20:06 8,8 C 7,8 C 3,9 C 79 % 1008,4 hPa 0,0 l/m 0 min 2 min 0 W/m 38,6 km/h (5 Bft) 95,74 %
15.02.2022 20:08 8,8 C 7,8 C 3,9 C 80 % 1008,4 hPa 0,0 l/m 0 min 2 min 0 W/m 35,4 km/h (5 Bft) 100,00 %
15.02.2022 20:10 8,8 C 7,8 C 3,9 C 80 % 1008,4 hPa 0,0 l/m 0 min 2 min 0 W/m 29,0 km/h (5 Bft) 100,00 %
15.02.2022 20:12 8,8 C 7,8 C 3,3 C 80 % 1008,3 hPa 0,0 l/m 0 min 2 min 0 W/m 38,6 km/h (5 Bft) 97,87 %
15.02.2022 20:14 8,8 C 7,8 C 3,3 C 81 % 1008,3 hPa 0,0 l/m 0 min 2 min 0 W/m 48,3 km/h (6 Bft) 97,87 %
15.02.2022 20:16 8,7 C 7,8 C 3,3 C 81 % 1008,4 hPa 0,0 l/m 0 min 2 min 0 W/m 32,2 km/h (5 Bft) 97,87 %
15.02.2022 20:18 8,7 C 7,8 C 3,3 C 82 % 1008,4 hPa 0,0 l/m 0 min 2 min 0 W/m 22,5 km/h (4 Bft) 95,74 %
15.02.2022 20:20 8,6 C 7,8 C 3,3 C 82 % 1008,5 hPa 0,0 l/m 0 min 2 min 0 W/m 38,6 km/h (5 Bft) 95,65 %
15.02.2022 20:22 8,6 C 7,8 C 3,3 C 82 % 1008,4 hPa 0,0 l/m 0 min 2 min 0 W/m 41,8 km/h (6 Bft) 95,74 %
15.02.2022 20:24 8,6 C 7,8 C 3,3 C 83 % 1008,3 hPa 0,0 l/m 0 min 2 min 0 W/m 41,8 km/h (6 Bft) 93,62 %
15.02.2022 20:26 8,5 C 7,2 C 3,3 C 83 % 1008,4 hPa 0,0 l/m 0 min 2 min 0 W/m 38,6 km/h (5 Bft) 95,74 %
15.02.2022 20:28 8,4 C 7,2 C 2,8 C 84 % 1008,4 hPa 0,0 l/m 0 min 2 min 0 W/m 29,0 km/h (5 Bft) 95,74 %
15.02.2022 20:30 8,4 C 7,2 C 2,8 C 84 % 1008,4 hPa 0,2 l/m 0 min 2 min 0 W/m 35,4 km/h (5 Bft) 95,65 %
15.02.2022 20:32 8,3 C 6,7 C 2,8 C 85 % 1008,4 hPa 0,0 l/m 0 min 2 min 0 W/m 38,6 km/h (5 Bft) 93,75 %
15.02.2022 20:34 8,3 C 6,7 C 2,8 C 85 % 1008,4 hPa 0,0 l/m 0 min 2 min 0 W/m 38,6 km/h (5 Bft) 95,74 %
15.02.2022 20:36 8,2 C 6,7 C 2,8 C 86 % 1008,4 hPa 0,0 l/m 0 min 2 min 0 W/m 32,2 km/h (5 Bft) 93,62 %
15.02.2022 20:38 8,2 C 6,7 C 2,8 C 86 % 1008,3 hPa 0,0 l/m 0 min 2 min 0 W/m 35,4 km/h (5 Bft) 95,74 %
15.02.2022 20:40 8,1 C 6,7 C 2,8 C 87 % 1008,3 hPa 0,0 l/m 0 min 2 min 0 W/m 32,2 km/h (5 Bft) 95,74 %
15.02.2022 20:42 8,1 C 6,7 C 2,8 C 87 % 1008,3 hPa 0,0 l/m 0 min 2 min 0 W/m 19,3 km/h (3 Bft) 93,62 %
15.02.2022 20:44 8,0 C 6,7 C 2,8 C 87 % 1008,2 hPa 0,2 l/m 0 min 2 min 0 W/m 32,2 km/h (5 Bft) 95,65 %
15.02.2022 20:46 7,9 C 6,7 C 2,8 C 88 % 1008,3 hPa 0,0 l/m 0 min 2 min 0 W/m 29,0 km/h (5 Bft) 93,62 %
15.02.2022 20:48 7,9 C 6,7 C 2,8 C 88 % 1008,3 hPa 0,0 l/m 0 min 2 min 0 W/m 25,7 km/h (4 Bft) 95,74 %
15.02.2022 20:50 7,9 C 6,7 C 2,8 C 88 % 1008,2 hPa 0,0 l/m 0 min 2 min 0 W/m 35,4 km/h (5 Bft) 95,74 %
15.02.2022 20:52 7,8 C 6,7 C 2,8 C 89 % 1008,2 hPa 0,0 l/m 0 min 2 min 0 W/m 25,7 km/h (4 Bft) 93,62 %
15.02.2022 20:54 7,8 C 6,7 C 2,8 C 89 % 1008,1 hPa 0,0 l/m 0 min 2 min 0 W/m 35,4 km/h (5 Bft) 95,74 %
15.02.2022 20:56 7,8 C 6,7 C 2,8 C 89 % 1008,1 hPa 0,2 l/m 0 min 2 min 0 W/m 32,2 km/h (5 Bft) 95,65 %
15.02.2022 20:58 7,8 C 6,7 C 2,8 C 89 % 1008,1 hPa 0,0 l/m 0 min 2 min 0 W/m 32,2 km/h (5 Bft) 95,74 %
15.02.2022 21:00 7,8 C 6,7 C 2,8 C 89 % 1008,1 hPa 0,0 l/m 0 min 2 min 0 W/m 29,0 km/h (5 Bft) 95,74 %
15.02.2022 21:02 7,7 C 6,1 C 2,8 C 90 % 1008,1 hPa 0,0 l/m 0 min 2 min 0 W/m 38,6 km/h (5 Bft) 97,87 %
15.02.2022 21:04 7,7 C 6,1 C 2,8 C 90 % 1008,1 hPa 0,0 l/m 0 min 2 min 0 W/m 29,0 km/h (5 Bft) 95,74 %
15.02.2022 21:06 7,7 C 6,1 C 2,8 C 90 % 1008,1 hPa 0,2 l/m 0 min 2 min 0 W/m 19,3 km/h (3 Bft) 97,87 %
15.02.2022 21:08 7,7 C 6,1 C 2,8 C 90 % 1008,2 hPa 0,0 l/m 0 min 2 min 0 W/m 35,4 km/h (5 Bft) 97,83 %
15.02.2022 21:10 7,6 C 6,1 C 2,8 C 91 % 1008,2 hPa 0,2 l/m 0 min 2 min 0 W/m 25,7 km/h (4 Bft) 97,87 %
15.02.2022 21:12 7,6 C 6,1 C 2,8 C 91 % 1008,2 hPa 0,0 l/m 0 min 2 min 0 W/m 35,4 km/h (5 Bft) 95,74 %
15.02.2022 21:14 7,6 C 6,1 C 2,8 C 91 % 1008,3 hPa 0,0 l/m 0 min 2 min 0 W/m 38,6 km/h (5 Bft) 97,87 %
15.02.2022 21:16 7,6 C 6,1 C 2,8 C 91 % 1008,2 hPa 0,2 l/m 0 min 2 min 0 W/m 25,7 km/h (4 Bft) 97,87 %
15.02.2022 21:18 7,6 C 6,1 C 2,8 C 92 % 1008,2 hPa 0,0 l/m 0 min 2 min 0 W/m 19,3 km/h (3 Bft) 97,87 %
15.02.2022 21:20 7,6 C 6,1 C 2,8 C 92 % 1008,1 hPa 0,0 l/m 0 min 2 min 0 W/m 25,7 km/h (4 Bft) 95,65 %
15.02.2022 21:24 7,5 C 6,1 C 2,8 C 92 % 1008,2 hPa 0,2 l/m 0 min 4 min 0 W/m 22,5 km/h (4 Bft) 96,97 %
15.02.2022 21:26 7,5 C 6,1 C 2,8 C 92 % 1008,1 hPa 0,0 l/m 0 min 2 min 0 W/m 19,3 km/h (3 Bft) 97,87 %
15.02.2022 21:28 7,5 C 6,1 C 2,8 C 92 % 1007,9 hPa 0,2 l/m 0 min 2 min 0 W/m 29,0 km/h (5 Bft) 97,87 %
15.02.2022 21:30 7,5 C 6,1 C 2,8 C 93 % 1008,0 hPa 0,0 l/m 0 min 2 min 0 W/m 22,5 km/h (4 Bft) 97,83 %
15.02.2022 21:32 7,4 C 6,1 C 2,8 C 93 % 1007,9 hPa 0,2 l/m 0 min 2 min 0 W/m 29,0 km/h (5 Bft) 97,92 %
15.02.2022 21:34 7,4 C 6,1 C 2,8 C 93 % 1007,9 hPa 0,0 l/m 0 min 2 min 0 W/m 22,5 km/h (4 Bft) 97,87 %
15.02.2022 21:36 7,4 C 6,1 C 2,8 C 93 % 1007,8 hPa 0,0 l/m 0 min 2 min 0 W/m 35,4 km/h (5 Bft) 97,87 %
15.02.2022 21:38 7,4 C 6,1 C 2,8 C 93 % 1007,7 hPa 0,0 l/m 0 min 2 min 0 W/m 22,5 km/h (4 Bft) 93,62 %
15.02.2022 21:40 7,4 C 6,1 C 2,8 C 93 % 1007,6 hPa 0,2 l/m 0 min 2 min 0 W/m 32,2 km/h (5 Bft) 97,87 %
15.02.2022 21:42 7,4 C 6,1 C 2,8 C 93 % 1007,6 hPa 0,0 l/m 0 min 2 min 0 W/m 38,6 km/h (5 Bft) 97,87 %
15.02.2022 21:44 7,4 C 6,1 C 2,8 C 93 % 1007,6 hPa 0,0 l/m 0 min 2 min 0 W/m 35,4 km/h (5 Bft) 100,00 %
15.02.2022 21:46 7,4 C 6,1 C 2,8 C 93 % 1007,5 hPa 0,0 l/m 0 min 2 min 0 W/m 35,4 km/h (5 Bft) 100,00 %
15.02.2022 21:48 7,4 C 6,1 C 2,8 C 94 % 1007,5 hPa 0,0 l/m 0 min 2 min 0 W/m 29,0 km/h (5 Bft) 100,00 %
15.02.2022 21:50 7,4 C 6,1 C 2,8 C 94 % 1007,4 hPa 0,2 l/m 0 min 0 min 0 W/m 51,5 km/h (7 Bft) 97,87 %
15.02.2022 21:52 7,4 C 6,1 C 2,8 C 94 % 1007,5 hPa 0,0 l/m 0 min 2 min 0 W/m 51,5 km/h (7 Bft) 97,87 %
15.02.2022 21:54 7,4 C 6,1 C 2,8 C 94 % 1007,4 hPa 0,0 l/m 0 min 2 min 0 W/m 22,5 km/h (4 Bft) 95,65 %
15.02.2022 21:56 7,4 C 6,1 C 2,8 C 94 % 1007,4 hPa 0,0 l/m 0 min 2 min 0 W/m 19,3 km/h (3 Bft) 56,52 %
15.02.2022 21:58 7,4 C 6,1 C 2,8 C 94 % 1007,4 hPa 0,0 l/m 0 min 2 min 0 W/m 38,6 km/h (5 Bft) 100,00 %
15.02.2022 22:00 7,4 C 6,1 C 2,8 C 94 % 1007,5 hPa 0,0 l/m 0 min 2 min 0 W/m 29,0 km/h (5 Bft) 100,00 %
15.02.2022 22:02 7,4 C 6,1 C 2,8 C 94 % 1007,4 hPa 0,0 l/m 0 min 2 min 0 W/m 29,0 km/h (5 Bft) 97,92 %
15.02.2022 22:04 7,4 C 6,1 C 2,8 C 94 % 1007,4 hPa 0,2 l/m 0 min 2 min 0 W/m 41,8 km/h (6 Bft) 95,74 %
15.02.2022 22:06 7,4 C 6,7 C 2,8 C 94 % 1007,4 hPa 0,0 l/m 0 min 2 min 0 W/m 35,4 km/h (5 Bft) 100,00 %
15.02.2022 22:08 7,4 C 6,7 C 2,8 C 94 % 1007,3 hPa 0,0 l/m 0 min 2 min 0 W/m 29,0 km/h (5 Bft) 100,00 %
15.02.2022 22:10 7,4 C 6,1 C 2,8 C 94 % 1007,3 hPa 0,0 l/m 0 min 2 min 0 W/m 25,7 km/h (4 Bft) 100,00 %
15.02.2022 22:12 7,4 C 6,1 C 2,8 C 94 % 1007,3 hPa 0,0 l/m 0 min 2 min 0 W/m 38,6 km/h (5 Bft) 100,00 %
15.02.2022 22:14 7,4 C 6,7 C 2,8 C 94 % 1007,3 hPa 0,2 l/m 0 min 2 min 0 W/m 32,2 km/h (5 Bft) 97,87 %
15.02.2022 22:16 7,5 C 6,7 C 2,8 C 94 % 1007,5 hPa 0,0 l/m 0 min 2 min 0 W/m 45,1 km/h (6 Bft) 95,74 %
15.02.2022 22:18 7,5 C 6,7 C 2,8 C 94 % 1007,2 hPa 0,0 l/m 0 min 2 min 0 W/m 35,4 km/h (5 Bft) 95,65 %
15.02.2022 22:20 7,5 C 6,7 C 2,8 C 94 % 1007,3 hPa 0,0 l/m 0 min 2 min 0 W/m 35,4 km/h (5 Bft) 97,87 %
15.02.2022 22:22 7,6 C 6,7 C 2,8 C 94 % 1007,1 hPa 0,0 l/m 0 min 2 min 0 W/m 25,7 km/h (4 Bft) 95,74 %
15.02.2022 22:24 7,6 C 6,7 C 2,8 C 94 % 1007,1 hPa 0,0 l/m 0 min 2 min 0 W/m 48,3 km/h (6 Bft) 95,74 %
15.02.2022 22:26 7,6 C 6,7 C 3,3 C 94 % 1007,0 hPa 0,0 l/m 0 min 2 min 0 W/m 38,6 km/h (5 Bft) 95,74 %
15.02.2022 22:28 7,6 C 6,7 C 2,8 C 94 % 1007,1 hPa 0,2 l/m 0 min 2 min 0 W/m 38,6 km/h (5 Bft) 95,74 %
15.02.2022 22:30 7,6 C 6,7 C 3,3 C 94 % 1007,0 hPa 0,0 l/m 0 min 2 min 0 W/m 19,3 km/h (3 Bft) 97,83 %
15.02.2022 22:32 7,6 C 6,1 C 3,3 C 94 % 1007,0 hPa 0,0 l/m 0 min 2 min 0 W/m 45,1 km/h (6 Bft) 95,83 %
15.02.2022 22:34 7,6 C 6,1 C 3,3 C 94 % 1007,1 hPa 0,0 l/m 0 min 2 min 0 W/m 35,4 km/h (5 Bft) 97,87 %
15.02.2022 22:36 7,6 C 6,7 C 3,3 C 94 % 1006,9 hPa 0,0 l/m 0 min 2 min 0 W/m 41,8 km/h (6 Bft) 97,87 %
15.02.2022 22:38 7,6 C 6,7 C 3,3 C 94 % 1006,9 hPa 0,2 l/m 0 min 2 min 0 W/m 29,0 km/h (5 Bft) 95,74 %
15.02.2022 22:40 7,6 C 6,7 C 3,3 C 94 % 1006,9 hPa 0,0 l/m 0 min 2 min 0 W/m 35,4 km/h (5 Bft) 97,83 %
15.02.2022 22:42 7,6 C 6,7 C 3,3 C 94 % 1006,7 hPa 0,0 l/m 0 min 2 min 0 W/m 29,0 km/h (5 Bft) 95,74 %
15.02.2022 22:44 7,6 C 6,7 C 3,3 C 94 % 1007,0 hPa 0,0 l/m 0 min 2 min 0 W/m 32,2 km/h (5 Bft) 97,87 %
15.02.2022 22:46 7,6 C 6,1 C 3,3 C 94 % 1006,7 hPa 0,0 l/m 0 min 2 min 0 W/m 25,7 km/h (4 Bft) 100,00 %
15.02.2022 22:48 7,6 C 6,7 C 3,3 C 94 % 1006,7 hPa 0,0 l/m 0 min 2 min 0 W/m 45,1 km/h (6 Bft) 100,00 %
15.02.2022 22:50 7,6 C 6,7 C 3,3 C 94 % 1006,7 hPa 0,0 l/m 0 min 2 min 0 W/m 35,4 km/h (5 Bft) 100,00 %
15.02.2022 22:52 7,6 C 6,7 C 3,3 C 94 % 1006,6 hPa 0,0 l/m 0 min 2 min 0 W/m 32,2 km/h (5 Bft) 95,65 %
15.02.2022 22:54 7,6 C 6,7 C 3,3 C 94 % 1006,7 hPa 0,0 l/m 0 min 2 min 0 W/m 35,4 km/h (5 Bft) 97,87 %
15.02.2022 22:56 7,6 C 6,7 C 3,3 C 94 % 1006,5 hPa 0,0 l/m 0 min 2 min 0 W/m 41,8 km/h (6 Bft) 95,74 %
15.02.2022 22:58 7,6 C 6,7 C 3,3 C 94 % 1006,6 hPa 0,0 l/m 0 min 2 min 0 W/m 32,2 km/h (5 Bft) 97,87 %
15.02.2022 23:00 7,6 C 6,7 C 3,3 C 94 % 1006,5 hPa 0,0 l/m 0 min 2 min 0 W/m 38,6 km/h (5 Bft) 95,74 %
15.02.2022 23:02 7,6 C 6,7 C 3,3 C 94 % 1006,5 hPa 0,0 l/m 0 min 2 min 0 W/m 32,2 km/h (5 Bft) 97,87 %
15.02.2022 23:04 7,6 C 6,7 C 3,3 C 94 % 1006,6 hPa 0,0 l/m 0 min 2 min 0 W/m 32,2 km/h (5 Bft) 97,83 %
15.02.2022 23:06 7,6 C 6,7 C 3,3 C 94 % 1006,6 hPa 0,0 l/m 0 min 2 min 0 W/m 32,2 km/h (5 Bft) 97,87 %
15.02.2022 23:08 7,6 C 6,7 C 3,3 C 94 % 1006,4 hPa 0,0 l/m 0 min 2 min 0 W/m 35,4 km/h (5 Bft) 97,87 %
15.02.2022 23:10 7,6 C 6,7 C 3,3 C 94 % 1006,4 hPa 0,0 l/m 0 min 2 min 0 W/m 38,6 km/h (5 Bft) 97,87 %
15.02.2022 23:12 7,6 C 6,7 C 3,3 C 94 % 1006,4 hPa 0,0 l/m 0 min 2 min 0 W/m 35,4 km/h (5 Bft) 95,74 %
15.02.2022 23:14 7,6 C 6,7 C 3,3 C 94 % 1006,3 hPa 0,2 l/m 0 min 2 min 0 W/m 41,8 km/h (6 Bft) 95,74 %
15.02.2022 23:16 7,6 C 6,7 C 3,3 C 94 % 1006,3 hPa 0,0 l/m 0 min 2 min 0 W/m 35,4 km/h (5 Bft) 97,83 %
15.02.2022 23:18 7,6 C 6,7 C 3,3 C 94 % 1006,4 hPa 0,0 l/m 0 min 2 min 0 W/m 29,0 km/h (5 Bft) 97,92 %
15.02.2022 23:20 7,6 C 6,7 C 3,3 C 94 % 1006,3 hPa 0,0 l/m 0 min 2 min 0 W/m 41,8 km/h (6 Bft) 97,87 %
15.02.2022 23:22 7,6 C 6,7 C 3,3 C 94 % 1006,4 hPa 0,0 l/m 0 min 2 min 0 W/m 51,5 km/h (7 Bft) 97,87 %
15.02.2022 23:24 7,7 C 6,7 C 3,3 C 94 % 1006,2 hPa 0,0 l/m 0 min 2 min 0 W/m 35,4 km/h (5 Bft) 97,87 %
15.02.2022 23:26 7,7 C 6,7 C 3,3 C 94 % 1006,3 hPa 0,0 l/m 0 min 2 min 0 W/m 41,8 km/h (6 Bft) 95,74 %
15.02.2022 23:28 7,7 C 6,7 C 3,3 C 94 % 1006,2 hPa 0,0 l/m 0 min 2 min 0 W/m 25,7 km/h (4 Bft) 97,83 %
15.02.2022 23:30 7,7 C 6,7 C 3,3 C 94 % 1006,2 hPa 0,0 l/m 0 min 2 min 0 W/m 38,6 km/h (5 Bft) 97,87 %
15.02.2022 23:32 7,7 C 6,7 C 3,3 C 94 % 1006,1 hPa 0,0 l/m 0 min 2 min 0 W/m 41,8 km/h (6 Bft) 95,74 %
15.02.2022 23:34 7,7 C 6,7 C 3,3 C 94 % 1006,2 hPa 0,0 l/m 0 min 2 min 0 W/m 38,6 km/h (5 Bft) 97,87 %
15.02.2022 23:36 7,7 C 6,7 C 3,3 C 94 % 1006,1 hPa 0,0 l/m 0 min 2 min 0 W/m 22,5 km/h (4 Bft) 100,00 %
15.02.2022 23:38 7,7 C 6,7 C 3,3 C 94 % 1006,1 hPa 0,0 l/m 0 min 2 min 0 W/m 29,0 km/h (5 Bft) 97,87 %
15.02.2022 23:40 7,7 C 6,7 C 3,3 C 94 % 1006,2 hPa 0,0 l/m 0 min 2 min 0 W/m 41,8 km/h (6 Bft) 100,00 %
15.02.2022 23:42 7,7 C 6,7 C 3,3 C 94 % 1006,2 hPa 0,0 l/m 0 min 2 min 0 W/m 29,0 km/h (5 Bft) 100,00 %
15.02.2022 23:44 7,7 C 6,7 C 3,3 C 94 % 1006,1 hPa 0,2 l/m 0 min 2 min 0 W/m 41,8 km/h (6 Bft) 100,00 %
15.02.2022 23:46 7,7 C 6,7 C 3,3 C 94 % 1006,0 hPa 0,0 l/m 0 min 2 min 0 W/m 35,4 km/h (5 Bft) 100,00 %
15.02.2022 23:48 7,7 C 6,7 C 3,3 C 94 % 1006,1 hPa 0,0 l/m 0 min 2 min 0 W/m 25,7 km/h (4 Bft) 100,00 %
15.02.2022 23:50 7,7 C 6,7 C 3,3 C 94 % 1006,1 hPa 0,0 l/m 0 min 2 min 0 W/m 38,6 km/h (5 Bft) 100,00 %
15.02.2022 23:52 7,7 C 6,7 C 3,3 C 94 % 1006,1 hPa 0,0 l/m 0 min 2 min 0 W/m 35,4 km/h (5 Bft) 97,83 %
15.02.2022 23:54 7,7 C 6,7 C 3,3 C 94 % 1006,0 hPa 0,0 l/m 0 min 2 min 0 W/m 29,0 km/h (5 Bft) 97,87 %
15.02.2022 23:56 7,7 C 6,7 C 3,3 C 94 % 1006,1 hPa 0,0 l/m 0 min 2 min 0 W/m 32,2 km/h (5 Bft) 93,62 %
15.02.2022 23:58 7,7 C 6,7 C 3,3 C 94 % 1006,1 hPa 0,0 l/m 0 min 2 min 0 W/m 41,8 km/h (6 Bft) 97,87 %
_ Min-Zeit 06:36 05:14 06:28 14:56 23:46 - - - - 01:48 00:02
Minimum _ 5,6 C 5,0 C 1,7 C 64 % 1006,0 hPa - - - - 3,2 km/h (1 Bft) 20,00 %
_ Max-Zeit 14:18 13:16 12:24 07:24 12:00 20:30 09:30 21:24 13:18 15:16 00:00
Maximum _ 10,1 C 20,6 C 7,8 C 94 % 1013,1 hPa 0,2 l/m 2 min 4 min 603 W/m 51,5 km/h
S (7 Bft)
100,00 %
Durchschnitt _ 7,5 C 7,5 C 3,6 C 84 % 1009,6 hPa #3,4 l/m #3:24 h #4:12 h 176 W/m 19,9 km/h (4 Bft) 97,03 %
© 2022 W. Hausmann